| time (UTC) | temp F | wind direction | speed knots | gust knots | rain 1hr in | rain 24hr in | rain mn in | humidity % | barometer mb |
| 20260506181210 | 62 | 237 | 1.7 | 6.1 | 0.00 | 0.01 | 0.00 | 64 | 1046.0 |
| 20260506181139 | 62 | 237 | 1.7 | 6.1 | 0.00 | 0.01 | 0.00 | 64 | 1046.0 |
| 20260506181130 | 62 | 237 | 1.7 | 4.3 | 0.00 | 0.01 | 0.00 | 64 | 1046.0 |
| 20260506180814 | 63 | 237 | 1.7 | 4.3 | 0.00 | 0.01 | 0.00 | 63 | 1045.9 |
| 20260506180752 | 63 | 237 | 1.7 | 4.3 | 0.00 | 0.01 | 0.00 | 64 | 1045.9 |
| 20260506180739 | 63 | 237 | 1.7 | 4.3 | 0.00 | 0.01 | 0.00 | 63 | 1045.9 |
| 20260506180733 | 63 | 237 | 1.7 | 5.2 | 0.00 | 0.01 | 0.00 | 63 | 1045.9 |
| 20260506180725 | 63 | 244 | 1.7 | 6.1 | 0.00 | 0.01 | 0.00 | 63 | 1045.9 |
| 20260506180718 | 63 | 244 | 1.7 | 6.1 | 0.00 | 0.01 | 0.00 | 63 | 1045.9 |
| 20260506180647 | 64 | 244 | 1.7 | 6.1 | 0.00 | 0.01 | 0.00 | 62 | 1045.9 |
| 20260506180201 | 64 | 244 | 2.6 | 6.1 | 0.00 | 0.01 | 0.00 | 62 | 1045.8 |
| 20260506180153 | 64 | 244 | 2.6 | 6.1 | 0.00 | 0.01 | 0.00 | 62 | 1045.8 |
| 20260506175706 | 64 | 244 | 2.6 | 6.1 | 0.00 | 0.01 | 0.00 | 62 | 1045.8 |
| 20260506175604 | 64 | 245 | 2.6 | 7.0 | 0.00 | 0.01 | 0.00 | 62 | 1045.8 |
| 20260506175503 | 64 | 201 | 2.6 | 7.0 | 0.00 | 0.01 | 0.00 | 62 | 1045.8 |
| 20260506175403 | 64 | 144 | 2.6 | 7.0 | 0.00 | 0.01 | 0.00 | 61 | 1045.8 |
| 20260506175306 | 64 | 144 | 2.6 | 7.0 | 0.00 | 0.01 | 0.00 | 61 | 1045.7 |
| 20260506175230 | 64 | 144 | 2.6 | 7.0 | 0.00 | 0.01 | 0.00 | 60 | 1045.8 |
| 20260506175218 | 64 | 143 | 2.6 | 7.0 | 0.00 | 0.01 | 0.00 | 60 | 1045.8 |
| 20260506175205 | 64 | 143 | 2.6 | 7.0 | 0.00 | 0.01 | 0.00 | 60 | 1045.8 |
| 20260506174941 | 64 | 141 | 3.5 | 7.0 | 0.00 | 0.01 | 0.00 | 59 | 1045.8 |
| 20260506174706 | 64 | 141 | 3.5 | 7.0 | 0.00 | 0.01 | 0.00 | 59 | 1045.8 |
| 20260506174604 | 64 | 217 | 3.5 | 6.1 | 0.00 | 0.01 | 0.00 | 59 | 1045.7 |
| 20260506174504 | 64 | 217 | 3.5 | 6.1 | 0.00 | 0.01 | 0.00 | 59 | 1045.8 |
| 20260506174404 | 64 | 217 | 3.5 | 7.0 | 0.00 | 0.01 | 0.00 | 59 | 1045.8 |
| 20260506174304 | 64 | 218 | 3.5 | 7.0 | 0.00 | 0.01 | 0.00 | 58 | 1045.8 |
| 20260506174206 | 64 | 208 | 3.5 | 7.0 | 0.00 | 0.01 | 0.00 | 58 | 1045.7 |
| 20260506174102 | 65 | 208 | 3.5 | 7.0 | 0.00 | 0.01 | 0.00 | 58 | 1045.7 |
| 20260506173959 | 65 | 208 | 3.5 | 7.0 | 0.00 | 0.01 | 0.00 | 57 | 1045.7 |
| 20260506173858 | 65 | 210 | 3.5 | 7.0 | 0.00 | 0.01 | 0.00 | 57 | 1045.7 |
| 20260506173758 | 65 | 207 | 3.5 | 7.0 | 0.00 | 0.01 | 0.00 | 57 | 1045.7 |
| 20260506173711 | 65 | 222 | 2.6 | 7.0 | 0.00 | 0.01 | 0.00 | 57 | 1045.7 |
| 20260506173657 | 65 | 222 | 2.6 | 7.0 | 0.00 | 0.01 | 0.00 | 57 | 1045.7 |
| 20260506173557 | 65 | 220 | 3.5 | 7.0 | 0.00 | 0.01 | 0.00 | 56 | 1045.6 |
| 20260506173456 | 65 | 224 | 2.6 | 7.0 | 0.00 | 0.01 | 0.00 | 56 | 1045.6 |
| 20260506173356 | 65 | 187 | 2.6 | 7.0 | 0.00 | 0.01 | 0.00 | 56 | 1045.6 |
| 20260506173256 | 65 | 218 | 2.6 | 6.1 | 0.00 | 0.01 | 0.00 | 56 | 1045.6 |
| 20260506173207 | 65 | 217 | 2.6 | 5.2 | 0.00 | 0.01 | 0.00 | 56 | 1045.6 |
| 20260506173155 | 65 | 217 | 2.6 | 5.2 | 0.00 | 0.01 | 0.00 | 57 | 1045.6 |
| 20260506173054 | 65 | 217 | 2.6 | 7.0 | 0.00 | 0.01 | 0.00 | 57 | 1045.6 |
| 20260506172953 | 65 | 218 | 2.6 | 7.0 | 0.00 | 0.01 | 0.00 | 56 | 1045.6 |
| 20260506172853 | 65 | 218 | 2.6 | 7.0 | 0.00 | 0.01 | 0.00 | 56 | 1045.6 |
| 20260506172754 | 65 | 224 | 3.5 | 7.0 | 0.00 | 0.01 | 0.00 | 55 | 1045.6 |
| 20260506172709 | 66 | 225 | 3.5 | 7.0 | 0.00 | 0.01 | 0.00 | 55 | 1045.6 |
| 20260506172654 | 66 | 225 | 3.5 | 7.0 | 0.00 | 0.01 | 0.00 | 55 | 1045.6 |
| 20260506172611 | 66 | 234 | 3.5 | 7.0 | 0.00 | 0.01 | 0.00 | 55 | 1045.6 |
| 20260506172603 | 66 | 200 | 3.5 | 7.0 | 0.00 | 0.01 | 0.00 | 55 | 1045.6 |
| 20260506172552 | 66 | 200 | 3.5 | 7.0 | 0.00 | 0.01 | 0.00 | 55 | 1045.6 |
| 20260506172534 | 66 | 200 | 3.5 | 7.0 | 0.00 | 0.01 | 0.00 | 54 | 1045.6 |
| 20260506172527 | 66 | 201 | 3.5 | 7.0 | 0.00 | 0.01 | 0.00 | 54 | 1045.6 |
| 20260506172515 | 66 | 220 | 3.5 | 7.0 | 0.00 | 0.01 | 0.00 | 54 | 1045.5 |
| 20260506172247 | 66 | 205 | 3.5 | 7.0 | 0.00 | 0.01 | 0.00 | 54 | 1045.6 |
| 20260506172238 | 66 | 206 | 2.6 | 7.0 | 0.00 | 0.01 | 0.00 | 54 | 1045.6 |
| 20260506171442 | 66 | 204 | 2.6 | 7.0 | 0.00 | 0.03 | 0.00 | 54 | 1045.5 |
| 20260506171341 | 66 | 204 | 3.5 | 7.0 | 0.00 | 0.03 | 0.00 | 54 | 1045.5 |
| 20260506171239 | 66 | 205 | 3.5 | 7.8 | 0.00 | 0.03 | 0.00 | 54 | 1045.6 |
| 20260506171203 | 66 | 239 | 3.5 | 7.8 | 0.00 | 0.03 | 0.00 | 54 | 1045.6 |
| 20260506171140 | 66 | 239 | 3.5 | 7.8 | 0.00 | 0.03 | 0.00 | 54 | 1045.5 |
| 20260506171040 | 66 | 239 | 3.5 | 7.8 | 0.00 | 0.03 | 0.00 | 54 | 1045.6 |
| 20260506170948 | 66 | 211 | 3.5 | 7.8 | 0.00 | 0.03 | 0.00 | 54 | 1045.6 |
| 20260506170940 | 66 | 212 | 3.5 | 7.8 | 0.00 | 0.03 | 0.00 | 54 | 1045.6 |
| 20260506170925 | 66 | 212 | 3.5 | 7.8 | 0.00 | 0.03 | 0.00 | 54 | 1045.5 |
| 20260506170635 | 66 | 213 | 3.5 | 7.8 | 0.00 | 0.03 | 0.00 | 54 | 1045.6 |
| 20260506170535 | 66 | 213 | 3.5 | 7.8 | 0.00 | 0.03 | 0.00 | 54 | 1045.6 |
| 20260506170436 | 66 | 183 | 3.5 | 7.8 | 0.00 | 0.03 | 0.00 | 53 | 1045.6 |
| 20260506170401 | 67 | 182 | 3.5 | 7.8 | 0.00 | 0.03 | 0.00 | 53 | 1045.5 |
| 20260506170352 | 67 | 165 | 3.5 | 7.0 | 0.00 | 0.03 | 0.00 | 53 | 1045.5 |
| 20260506170343 | 67 | 166 | 3.5 | 7.0 | 0.00 | 0.03 | 0.00 | 53 | 1045.5 |
| 20260506170331 | 67 | 166 | 3.5 | 7.0 | 0.00 | 0.03 | 0.00 | 53 | 1045.5 |
| 20260506170051 | 67 | 166 | 3.5 | 7.0 | 0.00 | 0.03 | 0.00 | 53 | 1045.5 |
| 20260506170036 | 67 | 165 | 3.5 | 7.0 | 0.00 | 0.03 | 0.00 | 52 | 1045.5 |
| 20260506170023 | 67 | 165 | 3.5 | 7.0 | 0.00 | 0.03 | 0.00 | 52 | 1045.5 |
| 20260506165754 | 67 | 165 | 2.6 | 7.0 | 0.00 | 0.03 | 0.00 | 53 | 1045.5 |
| 20260506165431 | 67 | 221 | 3.5 | 7.0 | 0.00 | 0.03 | 0.00 | 53 | 1045.4 |
| 20260506165330 | 67 | 222 | 3.5 | 7.0 | 0.00 | 0.03 | 0.00 | 52 | 1045.5 |
| 20260506165205 | 67 | 220 | 3.5 | 7.0 | 0.00 | 0.03 | 0.00 | 52 | 1045.5 |
| 20260506165128 | 67 | 220 | 3.5 | 7.0 | 0.00 | 0.03 | 0.00 | 53 | 1045.4 |
| 20260506165027 | 67 | 211 | 3.5 | 7.0 | 0.00 | 0.03 | 0.00 | 53 | 1045.4 |
| 20260506164923 | 67 | 211 | 3.5 | 7.0 | 0.00 | 0.03 | 0.00 | 53 | 1045.4 |
| 20260506164820 | 67 | 210 | 3.5 | 7.0 | 0.00 | 0.03 | 0.00 | 52 | 1045.4 |
| 20260506164720 | 67 | 208 | 3.5 | 7.0 | 0.00 | 0.03 | 0.00 | 53 | 1045.4 |
| 20260506164702 | 67 | 208 | 3.5 | 7.0 | 0.00 | 0.03 | 0.00 | 53 | 1045.4 |
| 20260506164646 | 67 | 207 | 3.5 | 7.0 | 0.00 | 0.03 | 0.00 | 53 | 1045.4 |
| 20260506164638 | 67 | 208 | 3.5 | 7.0 | 0.00 | 0.03 | 0.00 | 53 | 1045.4 |
| 20260506164313 | 67 | 211 | 3.5 | 7.8 | 0.00 | 0.03 | 0.00 | 53 | 1045.2 |
| 20260506164217 | 67 | 211 | 3.5 | 7.8 | 0.00 | 0.03 | 0.00 | 53 | 1045.4 |
| 20260506164156 | 67 | 216 | 3.5 | 7.8 | 0.00 | 0.03 | 0.00 | 53 | 1045.4 |
| 20260506164118 | 67 | 212 | 3.5 | 7.8 | 0.00 | 0.03 | 0.00 | 53 | 1045.2 |
| 20260506164017 | 67 | 211 | 3.5 | 7.8 | 0.00 | 0.03 | 0.00 | 53 | 1045.4 |
| 20260506163907 | 67 | 211 | 3.5 | 7.8 | 0.00 | 0.03 | 0.00 | 53 | 1045.4 |
| 20260506163807 | 67 | 211 | 3.5 | 7.8 | 0.00 | 0.03 | 0.00 | 52 | 1045.4 |
| 20260506163707 | 67 | 211 | 3.5 | 7.8 | 0.00 | 0.03 | 0.00 | 52 | 1045.4 |
| 20260506163649 | 67 | 211 | 3.5 | 7.8 | 0.00 | 0.03 | 0.00 | 52 | 1045.5 |
| 20260506163605 | 67 | 216 | 3.5 | 7.8 | 0.00 | 0.03 | 0.00 | 52 | 1045.5 |
| 20260506163503 | 68 | 233 | 3.5 | 7.8 | 0.00 | 0.03 | 0.00 | 52 | 1045.4 |
| 20260506163401 | 68 | 249 | 3.5 | 7.8 | 0.00 | 0.03 | 0.00 | 53 | 1045.4 |
| 20260506163308 | 68 | 218 | 3.5 | 7.8 | 0.00 | 0.04 | 0.00 | 52 | 1045.4 |
| 20260506163239 | 68 | 217 | 3.5 | 7.8 | 0.00 | 0.04 | 0.00 | 52 | 1045.4 |
| 20260506163231 | 68 | 217 | 3.5 | 7.8 | 0.00 | 0.04 | 0.00 | 53 | 1045.4 |
| 20260506162858 | 68 | 231 | 3.5 | 7.8 | 0.00 | 0.04 | 0.00 | 53 | 1045.4 |
| 20260506162833 | 68 | 231 | 3.5 | 7.8 | 0.00 | 0.04 | 0.00 | 53 | 1045.2 |
| 20260506162814 | 68 | 231 | 3.5 | 7.8 | 0.00 | 0.04 | 0.00 | 53 | 1045.2 |
| 20260506162806 | 68 | 231 | 3.5 | 7.8 | 0.00 | 0.04 | 0.00 | 53 | 1045.2 |
| 20260506162756 | 68 | 166 | 3.5 | 8.7 | 0.00 | 0.04 | 0.00 | 53 | 1045.2 |
| 20260506162745 | 68 | 160 | 3.5 | 8.7 | 0.00 | 0.04 | 0.00 | 52 | 1045.2 |
| 20260506162513 | 68 | 174 | 3.5 | 8.7 | 0.00 | 0.05 | 0.00 | 53 | 1045.2 |
| 20260506162251 | 68 | 216 | 3.5 | 10.4 | 0.00 | 0.05 | 0.00 | 53 | 1045.2 |
| 20260506162242 | 68 | 217 | 3.5 | 10.4 | 0.00 | 0.06 | 0.00 | 53 | 1045.2 |
| 20260506162234 | 68 | 158 | 4.3 | 10.4 | 0.00 | 0.06 | 0.00 | 53 | 1045.2 |
| 20260506162223 | 68 | 244 | 4.3 | 10.4 | 0.00 | 0.06 | 0.00 | 52 | 1045.1 |
| 20260506162205 | 68 | 251 | 4.3 | 10.4 | 0.00 | 0.06 | 0.00 | 52 | 1045.2 |
| 20260506161923 | 68 | 162 | 3.5 | 10.4 | 0.00 | 0.06 | 0.00 | 52 | 1045.1 |
| 20260506161653 | 68 | 194 | 3.5 | 10.4 | 0.00 | 0.07 | 0.00 | 52 | 1045.1 |
| 20260506161641 | 68 | 198 | 3.5 | 7.8 | 0.00 | 0.07 | 0.00 | 52 | 1045.1 |
| 20260506160838 | 68 | 198 | 3.5 | 7.8 | 0.00 | 0.09 | 0.00 | 52 | 1045.1 |
| 20260506160738 | 68 | 243 | 3.5 | 7.8 | 0.00 | 0.09 | 0.00 | 52 | 1045.1 |
| 20260506160643 | 68 | 192 | 3.5 | 7.8 | 0.00 | 0.09 | 0.00 | 52 | 1045.1 |
| 20260506160540 | 68 | 140 | 3.5 | 7.8 | 0.00 | 0.09 | 0.00 | 54 | 1045.1 |
| 20260506160438 | 68 | 231 | 3.5 | 7.8 | 0.00 | 0.09 | 0.00 | 54 | 1045.1 |
| 20260506160337 | 67 | 231 | 3.5 | 7.8 | 0.00 | 0.10 | 0.00 | 53 | 1045.1 |
| 20260506160237 | 67 | 233 | 3.5 | 7.8 | 0.00 | 0.10 | 0.00 | 52 | 1045.1 |
| 20260506160136 | 67 | 231 | 3.5 | 7.8 | 0.00 | 0.11 | 0.00 | 52 | 1045.1 |
| 20260506160035 | 67 | 153 | 2.6 | 7.8 | 0.00 | 0.11 | 0.00 | 52 | 1045.1 |
| 20260506155934 | 67 | 147 | 2.6 | 7.8 | 0.00 | 0.11 | 0.00 | 52 | 1045.1 |
| 20260506155916 | 67 | 143 | 2.6 | 7.8 | 0.00 | 0.12 | 0.00 | 53 | 1045.1 |
| 20260506155904 | 67 | 218 | 3.5 | 7.8 | 0.00 | 0.12 | 0.00 | 52 | 1045.1 |
| 20260506155854 | 67 | 227 | 3.5 | 7.8 | 0.00 | 0.12 | 0.00 | 52 | 1045.1 |
| 20260506155528 | 67 | 183 | 3.5 | 7.8 | 0.00 | 0.12 | 0.00 | 53 | 1045.2 |
| 20260506155429 | 67 | 238 | 3.5 | 7.8 | 0.00 | 0.12 | 0.00 | 53 | 1045.2 |
| 20260506155328 | 67 | 264 | 3.5 | 7.8 | 0.00 | 0.13 | 0.00 | 53 | 1045.1 |
| 20260506155225 | 67 | 264 | 3.5 | 7.8 | 0.00 | 0.13 | 0.00 | 52 | 1045.1 |
| 20260506155139 | 67 | 264 | 4.3 | 7.8 | 0.00 | 0.13 | 0.00 | 52 | 1045.1 |
| 20260506155125 | 67 | 264 | 4.3 | 9.6 | 0.00 | 0.13 | 0.00 | 52 | 1045.1 |
| 20260506155027 | 67 | 264 | 4.3 | 9.6 | 0.00 | 0.13 | 0.00 | 52 | 1045.1 |
| 20260506154951 | 67 | 264 | 4.3 | 9.6 | 0.00 | 0.13 | 0.00 | 52 | 1045.1 |
| 20260506154944 | 67 | 264 | 4.3 | 9.6 | 0.00 | 0.13 | 0.00 | 52 | 1045.1 |
| 20260506154638 | 68 | 246 | 3.5 | 9.6 | 0.00 | 0.13 | 0.00 | 52 | 1045.1 |
| 20260506154620 | 68 | 227 | 3.5 | 9.6 | 0.00 | 0.13 | 0.00 | 52 | 1045.1 |
| 20260506154557 | 68 | 242 | 3.5 | 9.6 | 0.00 | 0.13 | 0.00 | 51 | 1045.1 |
| 20260506154550 | 68 | 184 | 3.5 | 9.6 | 0.00 | 0.14 | 0.00 | 51 | 1045.0 |
| 20260506154538 | 68 | 187 | 3.5 | 10.4 | 0.00 | 0.14 | 0.00 | 51 | 1045.1 |
| 20260506154530 | 68 | 187 | 4.3 | 10.4 | 0.00 | 0.14 | 0.00 | 52 | 1045.2 |
| 20260506154519 | 68 | 185 | 3.5 | 10.4 | 0.00 | 0.14 | 0.00 | 52 | 1045.1 |
| 20260506154512 | 68 | 204 | 3.5 | 10.4 | 0.00 | 0.14 | 0.00 | 52 | 1045.1 |
| 20260506154245 | 68 | 192 | 4.3 | 10.4 | 0.00 | 0.15 | 0.00 | 53 | 1045.1 |
| 20260506153748 | 68 | 245 | 4.3 | 10.4 | 0.00 | 0.15 | 0.00 | 52 | 1045.1 |
| 20260506153735 | 68 | 255 | 5.2 | 10.4 | 0.00 | 0.15 | 0.00 | 52 | 1045.1 |
| 20260506153508 | 68 | 209 | 4.3 | 7.8 | 0.00 | 0.16 | 0.00 | 51 | 1045.2 |
| 20260506153241 | 68 | 174 | 4.3 | 7.8 | 0.00 | 0.17 | 0.00 | 51 | 1045.1 |
| 20260506153234 | 68 | 168 | 4.3 | 7.8 | 0.00 | 0.17 | 0.00 | 51 | 1045.1 |
| 20260506153223 | 68 | 162 | 4.3 | 7.8 | 0.00 | 0.17 | 0.00 | 52 | 1045.1 |
| 20260506153204 | 68 | 177 | 4.3 | 7.8 | 0.00 | 0.18 | 0.00 | 51 | 1045.1 |
| 20260506153142 | 68 | 179 | 4.3 | 7.8 | 0.00 | 0.19 | 0.00 | 51 | 1045.2 |
| 20260506153133 | 68 | 228 | 4.3 | 7.8 | 0.00 | 0.20 | 0.00 | 52 | 1045.2 |
| 20260506152908 | 68 | 229 | 4.3 | 7.8 | 0.00 | 0.20 | 0.00 | 53 | 1045.2 |
| 20260506152854 | 68 | 226 | 3.5 | 7.8 | 0.00 | 0.21 | 0.00 | 52 | 1045.1 |
| 20260506152841 | 68 | 188 | 3.5 | 7.8 | 0.00 | 0.23 | 0.00 | 52 | 1045.1 |
| 20260506152831 | 68 | 189 | 3.5 | 7.8 | 0.00 | 0.24 | 0.00 | 51 | 1045.2 |
| 20260506152824 | 68 | 206 | 3.5 | 7.0 | 0.00 | 0.24 | 0.00 | 53 | 1045.2 |
| 20260506152341 | 68 | 247 | 4.3 | 9.6 | 0.00 | 0.27 | 0.00 | 52 | 1045.2 |
| 20260506152327 | 68 | 247 | 4.3 | 9.6 | 0.00 | 0.28 | 0.00 | 52 | 1045.1 |
| 20260506152321 | 68 | 228 | 4.3 | 9.6 | 0.00 | 0.28 | 0.00 | 52 | 1045.2 |
| 20260506152311 | 68 | 228 | 3.5 | 9.6 | 0.00 | 0.28 | 0.00 | 53 | 1045.2 |
| 20260506152043 | 68 | 221 | 3.5 | 9.6 | 0.00 | 0.28 | 0.00 | 51 | 1045.2 |
| 20260506151336 | 68 | 222 | 2.6 | 9.6 | 0.00 | 0.29 | 0.00 | 50 | 1045.2 |
| 20260506151326 | 68 | 221 | 2.6 | 9.6 | 0.00 | 0.29 | 0.00 | 51 | 1045.4 |
| 20260506151004 | 68 | 149 | 1.7 | 6.1 | 0.00 | 0.29 | 0.00 | 51 | 1045.4 |
| 20260506150904 | 68 | 231 | 2.6 | 6.1 | 0.00 | 0.29 | 0.00 | 51 | 1045.4 |
| 20260506150803 | 68 | 233 | 2.6 | 7.8 | 0.00 | 0.29 | 0.00 | 51 | 1045.4 |
| 20260506150703 | 68 | 233 | 2.6 | 7.8 | 0.00 | 0.29 | 0.00 | 51 | 1045.4 |
| 20260506150605 | 68 | 233 | 2.6 | 7.8 | 0.00 | 0.29 | 0.00 | 52 | 1045.4 |
| 20260506150506 | 68 | 150 | 2.6 | 7.8 | 0.00 | 0.29 | 0.00 | 50 | 1045.4 |
| 20260506150434 | 68 | 149 | 2.6 | 7.8 | 0.00 | 0.29 | 0.00 | 51 | 1045.4 |
| 20260506150424 | 69 | 227 | 2.6 | 7.8 | 0.00 | 0.29 | 0.00 | 50 | 1045.4 |
| 20260506150104 | 69 | 231 | 2.6 | 7.8 | 0.00 | 0.29 | 0.00 | 49 | 1045.5 |
| 20260506150004 | 69 | 231 | 2.6 | 7.8 | 0.00 | 0.29 | 0.00 | 49 | 1045.5 |
| 20260506145903 | 69 | 233 | 2.6 | 7.8 | 0.00 | 0.29 | 0.00 | 50 | 1045.5 |
| 20260506145804 | 69 | 191 | 2.6 | 7.8 | 0.00 | 0.29 | 0.00 | 50 | 1045.5 |
| 20260506145705 | 69 | 200 | 2.6 | 6.1 | 0.00 | 0.29 | 0.00 | 50 | 1045.5 |
| 20260506145633 | 69 | 206 | 2.6 | 6.1 | 0.00 | 0.29 | 0.00 | 50 | 1045.5 |
| 20260506145603 | 69 | 206 | 2.6 | 6.1 | 0.00 | 0.29 | 0.00 | 50 | 1045.5 |
| 20260506145500 | 69 | 206 | 2.6 | 6.1 | 0.00 | 0.29 | 0.00 | 50 | 1045.5 |
| 20260506145424 | 70 | 206 | 2.6 | 6.1 | 0.00 | 0.29 | 0.00 | 49 | 1045.5 |
| 20260506145414 | 70 | 206 | 3.5 | 6.1 | 0.00 | 0.29 | 0.00 | 48 | 1045.5 |
| 20260506145358 | 70 | 207 | 3.5 | 7.0 | 0.00 | 0.29 | 0.00 | 48 | 1045.5 |
| 20260506145348 | 70 | 206 | 3.5 | 7.0 | 0.00 | 0.29 | 0.00 | 48 | 1045.5 |
| 20260506145338 | 70 | 207 | 3.5 | 7.0 | 0.00 | 0.29 | 0.00 | 48 | 1045.5 |
| 20260506144801 | 70 | 211 | 3.5 | 7.0 | 0.00 | 0.29 | 0.00 | 48 | 1045.5 |
| 20260506144701 | 70 | 212 | 2.6 | 7.0 | 0.00 | 0.29 | 0.00 | 48 | 1045.5 |
| 20260506144632 | 70 | 208 | 2.6 | 7.0 | 0.00 | 0.29 | 0.00 | 48 | 1045.5 |
| 20260506144601 | 70 | 208 | 2.6 | 7.0 | 0.00 | 0.29 | 0.00 | 48 | 1045.5 |
| 20260506144501 | 70 | 208 | 2.6 | 7.0 | 0.00 | 0.29 | 0.00 | 48 | 1045.5 |
| 20260506144402 | 70 | 208 | 2.6 | 7.0 | 0.00 | 0.29 | 0.00 | 48 | 1045.5 |
| 20260506144305 | 71 | 208 | 2.6 | 7.0 | 0.00 | 0.29 | 0.00 | 48 | 1045.6 |
| 20260506144202 | 71 | 256 | 2.6 | 7.0 | 0.00 | 0.29 | 0.00 | 48 | 1045.5 |
| 20260506144131 | 71 | 256 | 3.5 | 7.0 | 0.00 | 0.29 | 0.00 | 48 | 1045.5 |
| 20260506144101 | 71 | 258 | 3.5 | 7.0 | 0.00 | 0.29 | 0.00 | 47 | 1045.5 |
| 20260506144018 | 71 | 203 | 3.5 | 8.7 | 0.00 | 0.29 | 0.00 | 47 | 1045.5 |
| 20260506144009 | 71 | 203 | 3.5 | 8.7 | 0.00 | 0.29 | 0.00 | 46 | 1045.6 |
| 20260506143958 | 71 | 203 | 3.5 | 8.7 | 0.00 | 0.29 | 0.00 | 46 | 1045.6 |
| 20260506143947 | 71 | 202 | 4.3 | 8.7 | 0.00 | 0.29 | 0.00 | 47 | 1045.6 |
| 20260506143938 | 71 | 202 | 4.3 | 8.7 | 0.00 | 0.29 | 0.00 | 46 | 1045.6 |
| 20260506143438 | 71 | 203 | 4.3 | 8.7 | 0.00 | 0.29 | 0.00 | 46 | 1045.6 |
| 20260506143427 | 71 | 203 | 4.3 | 8.7 | 0.00 | 0.29 | 0.00 | 46 | 1045.7 |
| 20260506143131 | 71 | 196 | 4.3 | 8.7 | 0.00 | 0.29 | 0.00 | 47 | 1045.7 |
| 20260506143120 | 71 | 218 | 4.3 | 8.7 | 0.00 | 0.29 | 0.00 | 47 | 1045.7 |
| 20260506143105 | 71 | 197 | 3.5 | 7.0 | 0.00 | 0.29 | 0.00 | 46 | 1045.7 |
| 20260506143057 | 71 | 197 | 4.3 | 7.8 | 0.00 | 0.29 | 0.00 | 46 | 1045.7 |
| 20260506143050 | 71 | 201 | 3.5 | 7.8 | 0.00 | 0.29 | 0.00 | 46 | 1045.7 |
| 20260506143040 | 71 | 216 | 3.5 | 7.8 | 0.00 | 0.29 | 0.00 | 46 | 1045.6 |
| 20260506143031 | 71 | 249 | 3.5 | 7.8 | 0.00 | 0.29 | 0.00 | 45 | 1045.7 |
| 20260506143024 | 71 | 255 | 3.5 | 7.8 | 0.00 | 0.29 | 0.00 | 45 | 1045.7 |
| 20260506143010 | 71 | 258 | 3.5 | 7.8 | 0.00 | 0.29 | 0.00 | 46 | 1045.6 |
| 20260506142949 | 71 | 260 | 3.5 | 7.8 | 0.00 | 0.29 | 0.00 | 45 | 1045.6 |
| 20260506142502 | 71 | 222 | 3.5 | 7.8 | 0.00 | 0.29 | 0.00 | 47 | 1045.7 |
| 20260506142451 | 71 | 239 | 3.5 | 7.8 | 0.00 | 0.29 | 0.00 | 47 | 1045.7 |
| 20260506142218 | 71 | 252 | 2.6 | 6.1 | 0.00 | 0.29 | 0.00 | 47 | 1045.7 |
| 20260506141948 | 71 | 216 | 3.5 | 7.0 | 0.00 | 0.29 | 0.00 | 46 | 1045.7 |
| 20260506141942 | 71 | 245 | 3.5 | 7.0 | 0.00 | 0.29 | 0.00 | 46 | 1045.7 |
| 20260506141401 | 70 | 246 | 3.5 | 11.3 | 0.00 | 0.29 | 0.00 | 46 | 1045.7 |
| 20260506141303 | 70 | 244 | 3.5 | 11.3 | 0.00 | 0.29 | 0.00 | 46 | 1045.8 |
| 20260506141214 | 70 | 245 | 4.3 | 11.3 | 0.00 | 0.29 | 0.00 | 48 | 1045.8 |
| 20260506141158 | 70 | 245 | 4.3 | 11.3 | 0.00 | 0.29 | 0.00 | 48 | 1045.8 |
| 20260506141144 | 70 | 245 | 4.3 | 11.3 | 0.00 | 0.29 | 0.00 | 46 | 1045.8 |
| 20260506140921 | 70 | 243 | 4.3 | 11.3 | 0.00 | 0.29 | 0.00 | 45 | 1045.8 |
| 20260506140635 | 70 | 186 | 4.3 | 11.3 | 0.00 | 0.29 | 0.00 | 45 | 1045.8 |
| 20260506140559 | 70 | 246 | 4.3 | 10.4 | 0.00 | 0.29 | 0.00 | 45 | 1045.8 |
| 20260506140459 | 70 | 241 | 4.3 | 7.8 | 0.00 | 0.29 | 0.00 | 45 | 1045.9 |
| 20260506140356 | 70 | 255 | 4.3 | 7.8 | 0.00 | 0.29 | 0.00 | 45 | 1045.8 |
| 20260506140256 | 70 | 256 | 4.3 | 7.8 | 0.00 | 0.29 | 0.00 | 46 | 1045.8 |
| 20260506140157 | 70 | 231 | 4.3 | 7.8 | 0.00 | 0.29 | 0.00 | 46 | 1045.8 |
| 20260506140134 | 70 | 230 | 4.3 | 8.7 | 0.00 | 0.29 | 0.00 | 47 | 1045.9 |
| 20260506140056 | 70 | 229 | 4.3 | 8.7 | 0.00 | 0.29 | 0.00 | 46 | 1045.9 |
| 20260506135957 | 70 | 222 | 4.3 | 8.7 | 0.00 | 0.29 | 0.00 | 47 | 1045.9 |
| 20260506135857 | 70 | 225 | 4.3 | 8.7 | 0.00 | 0.29 | 0.00 | 46 | 1045.9 |
| 20260506135757 | 70 | 237 | 4.3 | 8.7 | 0.00 | 0.29 | 0.00 | 46 | 1045.9 |
| 20260506135653 | 70 | 233 | 4.3 | 8.7 | 0.00 | 0.29 | 0.00 | 46 | 1045.9 |
| 20260506135644 | 70 | 233 | 5.2 | 8.7 | 0.00 | 0.29 | 0.00 | 46 | 1045.9 |
| 20260506135551 | 70 | 230 | 5.2 | 8.7 | 0.00 | 0.29 | 0.00 | 46 | 1045.9 |
| 20260506135450 | 70 | 228 | 5.2 | 8.7 | 0.00 | 0.29 | 0.00 | 46 | 1045.9 |
| 20260506135350 | 71 | 208 | 5.2 | 8.7 | 0.00 | 0.29 | 0.00 | 45 | 1045.9 |
| 20260506135327 | 71 | 206 | 5.2 | 8.7 | 0.00 | 0.29 | 0.00 | 45 | 1045.9 |
| 20260506135317 | 71 | 206 | 5.2 | 8.7 | 0.00 | 0.29 | 0.00 | 46 | 1045.9 |
| 20260506135310 | 71 | 190 | 5.2 | 8.7 | 0.00 | 0.29 | 0.00 | 46 | 1045.9 |
| 20260506134945 | 71 | 190 | 5.2 | 8.7 | 0.00 | 0.29 | 0.00 | 46 | 1045.9 |
| 20260506134845 | 71 | 229 | 5.2 | 8.7 | 0.00 | 0.29 | 0.00 | 47 | 1046.0 |
| 20260506134745 | 71 | 233 | 5.2 | 8.7 | 0.00 | 0.29 | 0.00 | 46 | 1046.0 |
| 20260506134703 | 70 | 245 | 5.2 | 8.7 | 0.00 | 0.29 | 0.00 | 47 | 1046.0 |
| 20260506134653 | 70 | 246 | 5.2 | 8.7 | 0.00 | 0.29 | 0.00 | 47 | 1046.0 |
| 20260506134643 | 70 | 243 | 5.2 | 8.7 | 0.00 | 0.29 | 0.00 | 48 | 1046.0 |
| 20260506134630 | 70 | 241 | 4.3 | 8.7 | 0.00 | 0.29 | 0.00 | 48 | 1046.0 |
| 20260506134620 | 70 | 255 | 4.3 | 8.7 | 0.00 | 0.29 | 0.00 | 48 | 1046.0 |
| 20260506134349 | 70 | 229 | 4.3 | 8.7 | 0.00 | 0.29 | 0.00 | 50 | 1046.1 |
| 20260506134048 | 70 | 232 | 4.3 | 11.3 | 0.00 | 0.29 | 0.00 | 50 | 1046.0 |
| 20260506134039 | 69 | 273 | 5.2 | 11.3 | 0.00 | 0.29 | 0.00 | 49 | 1046.1 |
| 20260506134032 | 69 | 268 | 4.3 | 11.3 | 0.00 | 0.29 | 0.00 | 50 | 1046.1 |
| 20260506134020 | 69 | 242 | 4.3 | 11.3 | 0.00 | 0.29 | 0.00 | 51 | 1046.1 |
| 20260506134003 | 69 | 260 | 4.3 | 11.3 | 0.00 | 0.29 | 0.00 | 50 | 1046.1 |
| 20260506133957 | 69 | 259 | 4.3 | 11.3 | 0.00 | 0.29 | 0.00 | 50 | 1046.1 |
| 20260506133725 | 69 | 226 | 4.3 | 11.3 | 0.00 | 0.29 | 0.00 | 51 | 1046.1 |
| 20260506133717 | 69 | 222 | 3.5 | 11.3 | 0.00 | 0.29 | 0.00 | 53 | 1046.1 |
| 20260506133710 | 68 | 266 | 3.5 | 11.3 | 0.00 | 0.29 | 0.00 | 53 | 1046.1 |
| 20260506133440 | 68 | 285 | 3.5 | 11.3 | 0.00 | 0.29 | 0.00 | 52 | 1046.1 |
| 20260506133426 | 68 | 240 | 2.6 | 7.8 | 0.00 | 0.29 | 0.00 | 52 | 1046.1 |
| 20260506132710 | 68 | 235 | 3.5 | 7.8 | 0.00 | 0.29 | 0.00 | 52 | 1046.2 |
| 20260506132700 | 68 | 233 | 3.5 | 7.8 | 0.00 | 0.29 | 0.00 | 51 | 1046.1 |
| 20260506132653 | 68 | 104 | 3.5 | 7.8 | 0.00 | 0.29 | 0.00 | 50 | 1046.2 |
| 20260506132645 | 68 | 103 | 3.5 | 7.8 | 0.00 | 0.29 | 0.00 | 49 | 1046.1 |
| 20260506132634 | 68 | 103 | 3.5 | 7.8 | 0.00 | 0.29 | 0.00 | 48 | 1046.2 |
| 20260506132352 | 68 | 147 | 3.5 | 7.0 | 0.00 | 0.29 | 0.00 | 47 | 1046.1 |
| 20260506132122 | 68 | 126 | 2.6 | 7.0 | 0.00 | 0.29 | 0.00 | 48 | 1046.2 |
| 20260506131854 | 68 | 164 | 2.6 | 7.0 | 0.00 | 0.29 | 0.00 | 49 | 1046.2 |
| 20260506131615 | 68 | 164 | 2.6 | 7.0 | 0.00 | 0.29 | 0.00 | 49 | 1046.3 |
| 20260506131518 | 68 | 164 | 3.5 | 7.0 | 0.00 | 0.29 | 0.00 | 48 | 1046.3 |
| 20260506131413 | 68 | 164 | 3.5 | 8.7 | 0.00 | 0.29 | 0.00 | 50 | 1046.2 |
| 20260506131313 | 68 | 166 | 3.5 | 8.7 | 0.00 | 0.29 | 0.00 | 50 | 1046.3 |
| 20260506131259 | 68 | 166 | 3.5 | 8.7 | 0.00 | 0.29 | 0.00 | 50 | 1046.2 |
| 20260506131247 | 68 | 166 | 3.5 | 8.7 | 0.00 | 0.29 | 0.00 | 50 | 1046.3 |
| 20260506131240 | 68 | 167 | 3.5 | 8.7 | 0.00 | 0.29 | 0.00 | 49 | 1046.3 |
| 20260506131228 | 69 | 167 | 3.5 | 8.7 | 0.00 | 0.29 | 0.00 | 49 | 1046.3 |
| 20260506131003 | 69 | 160 | 3.5 | 8.7 | 0.00 | 0.29 | 0.00 | 48 | 1046.3 |
| 20260506130946 | 69 | 223 | 2.6 | 8.7 | 0.00 | 0.29 | 0.00 | 47 | 1046.3 |
| 20260506130934 | 69 | 225 | 2.6 | 8.7 | 0.00 | 0.29 | 0.00 | 47 | 1046.3 |
| 20260506130924 | 69 | 228 | 2.6 | 8.7 | 0.00 | 0.29 | 0.00 | 47 | 1046.3 |
| 20260506130658 | 69 | 258 | 1.7 | 7.0 | 0.00 | 0.29 | 0.00 | 49 | 1046.4 |
| 20260506130648 | 69 | 269 | 1.7 | 5.2 | 0.00 | 0.29 | 0.00 | 48 | 1046.4 |
| 20260506130640 | 69 | 269 | 1.7 | 5.2 | 0.00 | 0.29 | 0.00 | 47 | 1046.4 |
| 20260506130623 | 69 | 270 | 2.6 | 5.2 | 0.00 | 0.29 | 0.00 | 47 | 1046.3 |
| 20260506130616 | 69 | 270 | 2.6 | 6.1 | 0.00 | 0.29 | 0.00 | 47 | 1046.4 |
| 20260506130343 | 69 | 269 | 3.5 | 7.8 | 0.00 | 0.29 | 0.00 | 48 | 1046.3 |
| 20260506130331 | 69 | 270 | 3.5 | 7.8 | 0.00 | 0.29 | 0.00 | 48 | 1046.3 |
| 20260506125845 | 69 | 270 | 3.5 | 7.8 | 0.00 | 0.29 | 0.00 | 48 | 1046.3 |
| 20260506125339 | 69 | 270 | 4.3 | 7.8 | 0.00 | 0.29 | 0.00 | 49 | 1046.3 |
| 20260506125103 | 69 | 270 | 4.3 | 7.8 | 0.00 | 0.29 | 0.00 | 49 | 1046.4 |
| 20260506125004 | 68 | 270 | 3.5 | 7.8 | 0.00 | 0.29 | 0.00 | 49 | 1046.4 |
| 20260506124904 | 68 | 272 | 3.5 | 7.8 | 0.00 | 0.29 | 0.00 | 50 | 1046.4 |
| 20260506124803 | 68 | 275 | 3.5 | 7.0 | 0.00 | 0.29 | 0.00 | 50 | 1046.4 |
| 20260506124704 | 68 | 263 | 3.5 | 7.0 | 0.00 | 0.29 | 0.00 | 50 | 1046.4 |
| 20260506124620 | 68 | 191 | 3.5 | 6.1 | 0.00 | 0.29 | 0.00 | 51 | 1046.4 |
| 20260506124603 | 68 | 190 | 3.5 | 6.1 | 0.00 | 0.29 | 0.00 | 51 | 1046.4 |
| 20260506124504 | 68 | 189 | 3.5 | 6.1 | 0.00 | 0.29 | 0.00 | 51 | 1046.4 |
| 20260506124440 | 68 | 182 | 3.5 | 7.0 | 0.00 | 0.29 | 0.00 | 51 | 1046.4 |
| 20260506124430 | 67 | 181 | 2.6 | 7.0 | 0.00 | 0.29 | 0.00 | 50 | 1046.4 |
| 20260506124418 | 67 | 181 | 3.5 | 7.0 | 0.00 | 0.29 | 0.00 | 51 | 1046.4 |
| 20260506124405 | 67 | 181 | 2.6 | 7.0 | 0.00 | 0.29 | 0.00 | 50 | 1046.4 |
| 20260506124140 | 68 | 181 | 3.5 | 7.0 | 0.00 | 0.29 | 0.00 | 49 | 1046.3 |
| 20260506124132 | 68 | 182 | 3.5 | 7.0 | 0.00 | 0.29 | 0.00 | 49 | 1046.4 |
| 20260506124125 | 67 | 182 | 2.6 | 7.0 | 0.00 | 0.29 | 0.00 | 51 | 1046.3 |
| 20260506124111 | 67 | 183 | 2.6 | 7.0 | 0.00 | 0.29 | 0.00 | 52 | 1046.3 |
| 20260506124101 | 67 | 183 | 2.6 | 7.0 | 0.00 | 0.29 | 0.00 | 53 | 1046.4 |
| 20260506123333 | 67 | 185 | 2.6 | 7.0 | 0.00 | 0.29 | 0.00 | 55 | 1046.3 |
| 20260506123324 | 66 | 186 | 2.6 | 7.0 | 0.00 | 0.29 | 0.00 | 55 | 1046.3 |
| 20260506123314 | 66 | 174 | 2.6 | 7.0 | 0.00 | 0.29 | 0.00 | 55 | 1046.3 |
| 20260506123303 | 66 | 174 | 2.6 | 7.0 | 0.00 | 0.29 | 0.00 | 53 | 1046.3 |
| 20260506123253 | 66 | 114 | 2.6 | 7.0 | 0.00 | 0.29 | 0.00 | 52 | 1046.3 |
| 20260506122703 | 66 | 110 | 2.6 | 7.0 | 0.00 | 0.29 | 0.00 | 52 | 1046.4 |
| 20260506122650 | 66 | 112 | 2.6 | 7.0 | 0.00 | 0.29 | 0.00 | 52 | 1046.5 |
| 20260506122643 | 66 | 112 | 2.6 | 7.0 | 0.00 | 0.29 | 0.00 | 55 | 1046.5 |
| 20260506122634 | 65 | 99 | 2.6 | 7.0 | 0.00 | 0.29 | 0.00 | 54 | 1046.4 |
| 20260506122627 | 65 | 143 | 2.6 | 6.1 | 0.00 | 0.29 | 0.00 | 54 | 1046.5 |
| 20260506122616 | 65 | 143 | 2.6 | 6.1 | 0.00 | 0.29 | 0.00 | 54 | 1046.5 |
| 20260506122103 | 65 | 102 | 3.5 | 6.1 | 0.00 | 0.29 | 0.00 | 53 | 1046.5 |
| 20260506122006 | 65 | 95 | 3.5 | 6.1 | 0.00 | 0.29 | 0.00 | 53 | 1046.5 |
| 20260506121903 | 65 | 95 | 3.5 | 6.1 | 0.00 | 0.29 | 0.00 | 53 | 1046.5 |
| 20260506121803 | 65 | 157 | 3.5 | 5.2 | 0.00 | 0.29 | 0.00 | 53 | 1046.5 |
| 20260506121749 | 65 | 157 | 3.5 | 5.2 | 0.00 | 0.29 | 0.00 | 54 | 1046.5 |
| 20260506121731 | 65 | 157 | 3.5 | 5.2 | 0.00 | 0.29 | 0.00 | 55 | 1046.6 |
| 20260506121718 | 65 | 157 | 3.5 | 5.2 | 0.00 | 0.29 | 0.00 | 54 | 1046.6 |
| 20260506121710 | 65 | 157 | 2.6 | 5.2 | 0.00 | 0.30 | 0.00 | 52 | 1046.6 |
| 20260506121221 | 65 | 156 | 1.7 | 5.2 | 0.00 | 0.30 | 0.00 | 51 | 1046.6 |
| 20260506121212 | 65 | 158 | 1.7 | 5.2 | 0.00 | 0.30 | 0.00 | 51 | 1046.6 |
| 20260506121147 | 65 | 164 | 1.7 | 4.3 | 0.00 | 0.30 | 0.00 | 52 | 1046.6 |
| 20260506120920 | 65 | 164 | 0.9 | 3.5 | 0.00 | 0.30 | 0.00 | 52 | 1046.6 |
| 20260506120620 | 65 | 164 | 0.9 | 3.5 | 0.00 | 0.30 | 0.00 | 53 | 1046.6 |
| 20260506120556 | 66 | 165 | 0.9 | 4.3 | 0.00 | 0.30 | 0.00 | 53 | 1046.6 |
| 20260506120455 | 66 | 164 | 0.9 | 4.3 | 0.00 | 0.30 | 0.00 | 53 | 1046.6 |
| 20260506120403 | 66 | 165 | 0.9 | 4.3 | 0.00 | 0.30 | 0.00 | 52 | 1046.6 |
| 20260506120353 | 65 | 165 | 0.9 | 4.3 | 0.00 | 0.30 | 0.00 | 51 | 1046.6 |
| 20260506120341 | 66 | 165 | 0.9 | 4.3 | 0.00 | 0.30 | 0.00 | 52 | 1046.6 |
| 20260506120055 | 66 | 165 | 0.9 | 4.3 | 0.00 | 0.30 | 0.00 | 52 | 1046.6 |
| 20260506115955 | 66 | 165 | 0.9 | 4.3 | 0.00 | 0.30 | 0.00 | 53 | 1046.6 |
| 20260506115855 | 66 | 165 | 0.9 | 4.3 | 0.00 | 0.30 | 0.00 | 53 | 1046.6 |
| 20260506115755 | 66 | 165 | 1.7 | 4.3 | 0.00 | 0.30 | 0.00 | 53 | 1046.6 |
| 20260506115655 | 66 | 165 | 1.7 | 4.3 | 0.00 | 0.30 | 0.00 | 52 | 1046.7 |
| 20260506115636 | 66 | 166 | 1.7 | 4.3 | 0.00 | 0.30 | 0.00 | 52 | 1046.6 |
| 20260506115629 | 66 | 165 | 1.7 | 4.3 | 0.00 | 0.30 | 0.00 | 52 | 1046.6 |
| 20260506115619 | 66 | 160 | 1.7 | 4.3 | 0.00 | 0.30 | 0.00 | 55 | 1046.6 |
| 20260506115251 | 66 | 160 | 1.7 | 4.3 | 0.00 | 0.30 | 0.00 | 53 | 1046.6 |
| 20260506115122 | 66 | 160 | 1.7 | 4.3 | 0.00 | 0.30 | 0.00 | 53 | 1046.7 |
| 20260506115054 | 66 | 160 | 1.7 | 4.3 | 0.00 | 0.30 | 0.00 | 52 | 1046.7 |
| 20260506114951 | 66 | 160 | 1.7 | 4.3 | 0.00 | 0.30 | 0.00 | 53 | 1046.6 |
| 20260506114855 | 66 | 160 | 1.7 | 4.3 | 0.00 | 0.30 | 0.00 | 52 | 1046.7 |
| 20260506114751 | 66 | 160 | 1.7 | 4.3 | 0.00 | 0.30 | 0.00 | 52 | 1046.7 |
| 20260506114650 | 66 | 160 | 1.7 | 4.3 | 0.00 | 0.30 | 0.00 | 53 | 1046.7 |
| 20260506114619 | 66 | 160 | 1.7 | 4.3 | 0.00 | 0.30 | 0.00 | 53 | 1046.7 |
| 20260506114552 | 66 | 160 | 1.7 | 4.3 | 0.00 | 0.30 | 0.00 | 53 | 1046.7 |
| 20260506114451 | 66 | 159 | 1.7 | 4.3 | 0.00 | 0.30 | 0.00 | 52 | 1046.7 |
| 20260506114351 | 66 | 159 | 1.7 | 5.2 | 0.00 | 0.30 | 0.00 | 52 | 1046.7 |
| 20260506114252 | 66 | 159 | 2.6 | 5.2 | 0.00 | 0.30 | 0.00 | 53 | 1046.7 |
| 20260506114151 | 66 | 159 | 1.7 | 5.2 | 0.00 | 0.30 | 0.00 | 53 | 1046.7 |
| 20260506114119 | 66 | 159 | 1.7 | 5.2 | 0.00 | 0.30 | 0.00 | 54 | 1046.7 |
| 20260506114052 | 66 | 159 | 1.7 | 5.2 | 0.00 | 0.30 | 0.00 | 54 | 1046.7 |
| 20260506113951 | 66 | 159 | 1.7 | 5.2 | 0.00 | 0.30 | 0.00 | 55 | 1046.7 |
| 20260506113905 | 66 | 159 | 1.7 | 5.2 | 0.00 | 0.30 | 0.00 | 55 | 1046.7 |
| 20260506113856 | 65 | 158 | 1.7 | 5.2 | 0.00 | 0.30 | 0.00 | 55 | 1046.7 |
| 20260506113844 | 65 | 160 | 2.6 | 5.2 | 0.00 | 0.30 | 0.00 | 55 | 1046.7 |
| 20260506113551 | 65 | 159 | 1.7 | 5.2 | 0.00 | 0.30 | 0.00 | 54 | 1046.7 |
| 20260506113451 | 65 | 159 | 1.7 | 5.2 | 0.00 | 0.30 | 0.00 | 55 | 1046.8 |
| 20260506113351 | 65 | 158 | 1.7 | 4.3 | 0.00 | 0.30 | 0.00 | 54 | 1046.7 |
| 20260506113251 | 65 | 157 | 1.7 | 4.3 | 0.00 | 0.30 | 0.00 | 54 | 1046.7 |
| 20260506113151 | 65 | 157 | 1.7 | 5.2 | 0.00 | 0.30 | 0.00 | 53 | 1046.7 |
| 20260506113120 | 65 | 157 | 1.7 | 5.2 | 0.00 | 0.30 | 0.00 | 53 | 1046.7 |
| 20260506113051 | 65 | 156 | 1.7 | 5.2 | 0.00 | 0.30 | 0.00 | 53 | 1046.7 |
| 20260506112951 | 65 | 157 | 2.6 | 6.1 | 0.00 | 0.30 | 0.00 | 54 | 1046.7 |
| 20260506112851 | 65 | 156 | 2.6 | 6.1 | 0.00 | 0.30 | 0.00 | 55 | 1046.7 |
| 20260506112751 | 65 | 157 | 2.6 | 6.1 | 0.00 | 0.30 | 0.00 | 55 | 1046.7 |
| 20260506112643 | 65 | 156 | 2.6 | 6.1 | 0.00 | 0.30 | 0.00 | 55 | 1046.7 |
| 20260506112615 | 65 | 156 | 2.6 | 6.1 | 0.00 | 0.30 | 0.00 | 54 | 1046.7 |
| 20260506112543 | 65 | 156 | 2.6 | 6.1 | 0.00 | 0.30 | 0.00 | 54 | 1046.7 |
| 20260506112443 | 65 | 156 | 2.6 | 6.1 | 0.00 | 0.30 | 0.00 | 53 | 1046.7 |
| 20260506112409 | 65 | 156 | 2.6 | 6.1 | 0.00 | 0.30 | 0.00 | 53 | 1046.7 |
| 20260506112403 | 65 | 156 | 2.6 | 6.1 | 0.00 | 0.30 | 0.00 | 52 | 1046.8 |
| 20260506112349 | 65 | 156 | 2.6 | 6.1 | 0.00 | 0.30 | 0.00 | 54 | 1046.8 |
| 20260506112338 | 65 | 156 | 2.6 | 6.1 | 0.00 | 0.30 | 0.00 | 56 | 1046.8 |
| 20260506112329 | 65 | 156 | 2.6 | 6.1 | 0.00 | 0.31 | 0.00 | 56 | 1046.8 |
| 20260506112058 | 65 | 69 | 1.7 | 4.3 | 0.00 | 0.31 | 0.00 | 57 | 1046.8 |
| 20260506112035 | 65 | 69 | 1.7 | 4.3 | 0.00 | 0.31 | 0.00 | 58 | 1046.8 |
| 20260506111804 | 65 | 69 | 1.7 | 4.3 | 0.00 | 0.31 | 0.00 | 57 | 1046.8 |
| 20260506111443 | 64 | 70 | 1.7 | 4.3 | 0.00 | 0.31 | 0.00 | 55 | 1046.8 |
| 20260506111343 | 64 | 73 | 1.7 | 3.5 | 0.00 | 0.31 | 0.00 | 55 | 1046.8 |
| 20260506111243 | 64 | 74 | 1.7 | 4.3 | 0.00 | 0.31 | 0.00 | 58 | 1046.8 |
| 20260506111143 | 64 | 73 | 1.7 | 6.1 | 0.00 | 0.31 | 0.00 | 58 | 1046.8 |
| 20260506111115 | 64 | 74 | 1.7 | 6.1 | 0.00 | 0.31 | 0.00 | 58 | 1046.8 |
| 20260506111045 | 64 | 74 | 1.7 | 6.1 | 0.00 | 0.31 | 0.00 | 56 | 1046.9 |
| 20260506110954 | 64 | 73 | 1.7 | 6.1 | 0.00 | 0.31 | 0.00 | 56 | 1046.9 |
| 20260506110948 | 64 | 74 | 1.7 | 6.1 | 0.00 | 0.31 | 0.00 | 56 | 1046.8 |
| 20260506110935 | 64 | 74 | 2.6 | 6.1 | 0.00 | 0.31 | 0.00 | 56 | 1046.8 |
| 20260506110926 | 64 | 74 | 2.6 | 6.1 | 0.00 | 0.31 | 0.00 | 55 | 1046.8 |
| 20260506110659 | 65 | 74 | 2.6 | 6.1 | 0.00 | 0.31 | 0.00 | 56 | 1046.8 |
| 20260506110647 | 65 | 73 | 3.5 | 6.1 | 0.00 | 0.31 | 0.00 | 56 | 1046.8 |
| 20260506110421 | 65 | 73 | 2.6 | 6.1 | 0.00 | 0.31 | 0.00 | 55 | 1046.8 |
| 20260506110407 | 65 | 76 | 2.6 | 6.1 | 0.00 | 0.31 | 0.00 | 55 | 1046.8 |
| 20260506110358 | 65 | 76 | 2.6 | 6.1 | 0.00 | 0.31 | 0.00 | 54 | 1046.8 |
| 20260506110106 | 65 | 77 | 2.6 | 6.1 | 0.00 | 0.31 | 0.00 | 54 | 1046.9 |
| 20260506105742 | 65 | 84 | 1.7 | 5.2 | 0.00 | 0.31 | 0.00 | 56 | 1046.8 |
| 20260506105616 | 65 | 83 | 1.7 | 4.3 | 0.00 | 0.31 | 0.00 | 55 | 1046.8 |
| 20260506105601 | 65 | 211 | 1.7 | 4.3 | 0.00 | 0.31 | 0.00 | 55 | 1046.8 |
| 20260506105552 | 65 | 210 | 1.7 | 4.3 | 0.00 | 0.31 | 0.00 | 54 | 1046.8 |
| 20260506105540 | 65 | 210 | 1.7 | 4.3 | 0.00 | 0.31 | 0.00 | 55 | 1046.8 |
| 20260506105309 | 65 | 210 | 1.7 | 4.3 | 0.00 | 0.31 | 0.00 | 56 | 1046.8 |
| 20260506105300 | 65 | 210 | 1.7 | 4.3 | 0.00 | 0.31 | 0.00 | 57 | 1046.8 |
| 20260506104939 | 65 | 210 | 1.7 | 4.3 | 0.00 | 0.31 | 0.00 | 56 | 1046.8 |
| 20260506104839 | 65 | 210 | 2.6 | 4.3 | 0.00 | 0.31 | 0.00 | 57 | 1046.9 |
| 20260506104739 | 65 | 210 | 2.6 | 5.2 | 0.00 | 0.31 | 0.00 | 58 | 1046.9 |
| 20260506104627 | 65 | 210 | 2.6 | 5.2 | 0.00 | 0.31 | 0.00 | 58 | 1046.9 |
| 20260506104619 | 65 | 210 | 2.6 | 5.2 | 0.00 | 0.31 | 0.00 | 58 | 1046.9 |
| 20260506104611 | 65 | 210 | 1.7 | 5.2 | 0.00 | 0.31 | 0.00 | 58 | 1046.8 |
| 20260506104601 | 65 | 209 | 1.7 | 5.2 | 0.00 | 0.31 | 0.00 | 58 | 1046.8 |
| 20260506104555 | 65 | 209 | 1.7 | 5.2 | 0.00 | 0.31 | 0.00 | 57 | 1046.8 |
| 20260506104039 | 65 | 208 | 2.6 | 5.2 | 0.00 | 0.31 | 0.00 | 57 | 1046.8 |
| 20260506103939 | 65 | 208 | 2.6 | 5.2 | 0.00 | 0.31 | 0.00 | 58 | 1046.8 |
| 20260506103839 | 65 | 208 | 2.6 | 6.1 | 0.00 | 0.31 | 0.00 | 58 | 1046.9 |
| 20260506103737 | 65 | 206 | 2.6 | 6.1 | 0.00 | 0.31 | 0.00 | 56 | 1046.9 |
| 20260506103636 | 65 | 205 | 3.5 | 6.1 | 0.00 | 0.31 | 0.00 | 58 | 1046.9 |
| 20260506103611 | 65 | 205 | 3.5 | 7.8 | 0.00 | 0.31 | 0.00 | 58 | 1046.9 |
| 20260506103537 | 65 | 205 | 2.6 | 7.8 | 0.00 | 0.31 | 0.00 | 59 | 1046.9 |
| 20260506103436 | 65 | 204 | 3.5 | 7.8 | 0.00 | 0.31 | 0.00 | 58 | 1046.9 |
| 20260506103337 | 65 | 204 | 3.5 | 7.8 | 0.00 | 0.31 | 0.00 | 58 | 1046.9 |
| 20260506103237 | 65 | 204 | 3.5 | 8.7 | 0.00 | 0.31 | 0.00 | 56 | 1046.9 |
| 20260506103155 | 65 | 200 | 3.5 | 8.7 | 0.00 | 0.31 | 0.00 | 56 | 1047.0 |
| 20260506103144 | 65 | 199 | 3.5 | 8.7 | 0.00 | 0.31 | 0.00 | 56 | 1047.0 |
| 20260506103137 | 65 | 200 | 3.5 | 8.7 | 0.00 | 0.31 | 0.00 | 57 | 1047.0 |
| 20260506103124 | 65 | 199 | 3.5 | 8.7 | 0.00 | 0.31 | 0.00 | 57 | 1046.9 |
| 20260506103115 | 65 | 160 | 3.5 | 8.7 | 0.00 | 0.31 | 0.00 | 56 | 1046.9 |
| 20260506102609 | 65 | 163 | 2.6 | 8.7 | 0.00 | 0.31 | 0.00 | 57 | 1047.0 |
| 20260506102532 | 65 | 221 | 3.5 | 8.7 | 0.00 | 0.31 | 0.00 | 56 | 1047.0 |
| 20260506102455 | 65 | 221 | 3.5 | 8.7 | 0.00 | 0.31 | 0.00 | 55 | 1047.0 |
| 20260506102447 | 66 | 101 | 2.6 | 8.7 | 0.00 | 0.31 | 0.00 | 57 | 1047.0 |
| 20260506102436 | 66 | 240 | 2.6 | 8.7 | 0.00 | 0.31 | 0.00 | 56 | 1047.0 |
| 20260506102200 | 66 | 125 | 2.6 | 8.7 | 0.00 | 0.31 | 0.00 | 56 | 1047.0 |
| 20260506102153 | 66 | 125 | 2.6 | 8.7 | 0.00 | 0.31 | 0.00 | 56 | 1047.0 |
| 20260506102142 | 66 | 127 | 2.6 | 8.7 | 0.00 | 0.31 | 0.00 | 55 | 1047.0 |
| 20260506102135 | 66 | 127 | 2.6 | 8.7 | 0.00 | 0.31 | 0.00 | 56 | 1047.0 |
| 20260506101851 | 66 | 126 | 1.7 | 8.7 | 0.00 | 0.31 | 0.00 | 52 | 1047.0 |
| 20260506101842 | 66 | 127 | 1.7 | 8.7 | 0.00 | 0.31 | 0.00 | 52 | 1047.0 |
| 20260506101612 | 66 | 88 | 1.7 | 6.1 | 0.00 | 0.31 | 0.00 | 50 | 1047.0 |
| 20260506101346 | 66 | 316 | 1.7 | 7.8 | 0.00 | 0.31 | 0.00 | 52 | 1047.0 |
| 20260506101109 | 66 | 316 | 1.7 | 7.8 | 0.00 | 0.31 | 0.00 | 53 | 1047.0 |
| 20260506101014 | 66 | 316 | 1.7 | 7.8 | 0.00 | 0.31 | 0.00 | 54 | 1047.0 |
| 20260506100910 | 66 | 316 | 1.7 | 7.8 | 0.00 | 0.31 | 0.00 | 52 | 1047.0 |
| 20260506100808 | 66 | 316 | 2.6 | 7.8 | 0.00 | 0.31 | 0.00 | 53 | 1047.0 |
| 20260506100704 | 66 | 316 | 1.7 | 7.8 | 0.00 | 0.31 | 0.00 | 54 | 1047.0 |
| 20260506100604 | 66 | 315 | 2.6 | 7.8 | 0.00 | 0.31 | 0.00 | 52 | 1047.1 |
| 20260506100503 | 66 | 314 | 2.6 | 7.8 | 0.00 | 0.31 | 0.00 | 51 | 1047.1 |
| 20260506100404 | 66 | 312 | 2.6 | 7.8 | 0.00 | 0.31 | 0.00 | 52 | 1047.1 |
| 20260506100338 | 65 | 312 | 3.5 | 7.8 | 0.00 | 0.31 | 0.00 | 51 | 1047.1 |
| 20260506100331 | 65 | 291 | 3.5 | 7.0 | 0.00 | 0.31 | 0.00 | 51 | 1047.1 |
| 20260506100318 | 65 | 290 | 3.5 | 7.0 | 0.00 | 0.31 | 0.00 | 50 | 1047.1 |
| 20260506100001 | 65 | 291 | 3.5 | 7.0 | 0.00 | 0.31 | 0.00 | 53 | 1047.1 |
| 20260506095910 | 65 | 290 | 3.5 | 7.0 | 0.00 | 0.31 | 0.00 | 54 | 1047.1 |
| 20260506095903 | 65 | 291 | 3.5 | 7.0 | 0.00 | 0.31 | 0.00 | 53 | 1047.1 |
| 20260506095848 | 65 | 291 | 3.5 | 7.0 | 0.00 | 0.31 | 0.00 | 53 | 1047.2 |
| 20260506095620 | 65 | 293 | 3.5 | 7.0 | 0.00 | 0.31 | 0.00 | 54 | 1047.1 |
| 20260506095611 | 65 | 297 | 3.5 | 7.0 | 0.00 | 0.31 | 0.00 | 54 | 1047.2 |
| 20260506095247 | 66 | 359 | 2.6 | 7.8 | 0.00 | 0.31 | 0.00 | 53 | 1047.2 |
| 20260506095143 | 66 | 359 | 2.6 | 7.8 | 0.00 | 0.31 | 0.00 | 51 | 1047.2 |
| 20260506095103 | 66 | 4 | 2.6 | 7.8 | 0.00 | 0.31 | 0.00 | 53 | 1047.2 |
| 20260506095041 | 66 | 4 | 2.6 | 7.8 | 0.00 | 0.31 | 0.00 | 54 | 1047.2 |
| 20260506094941 | 66 | 233 | 2.6 | 7.8 | 0.00 | 0.31 | 0.00 | 53 | 1047.2 |
| 20260506094841 | 66 | 77 | 3.5 | 7.8 | 0.00 | 0.31 | 0.00 | 51 | 1047.2 |
| 20260506094740 | 66 | 79 | 3.5 | 7.8 | 0.00 | 0.31 | 0.00 | 52 | 1047.2 |
| 20260506094705 | 66 | 282 | 3.5 | 7.8 | 0.00 | 0.31 | 0.00 | 51 | 1047.2 |
| 20260506094654 | 66 | 262 | 3.5 | 7.8 | 0.00 | 0.31 | 0.00 | 52 | 1047.2 |
| 20260506094647 | 66 | 343 | 3.5 | 7.8 | 0.00 | 0.31 | 0.00 | 52 | 1047.2 |
| 20260506094634 | 66 | 312 | 3.5 | 7.8 | 0.00 | 0.31 | 0.00 | 53 | 1047.2 |
| 20260506094626 | 66 | 345 | 3.5 | 7.8 | 0.00 | 0.31 | 0.00 | 52 | 1047.2 |
| 20260506094127 | 65 | 346 | 3.5 | 8.7 | 0.00 | 0.31 | 0.00 | 52 | 1047.3 |
| 20260506094120 | 65 | 343 | 4.3 | 8.7 | 0.00 | 0.31 | 0.00 | 52 | 1047.3 |
| 20260506094111 | 65 | 338 | 4.3 | 9.6 | 0.00 | 0.31 | 0.00 | 53 | 1047.3 |
| 20260506094052 | 65 | 345 | 4.3 | 9.6 | 0.00 | 0.31 | 0.00 | 52 | 1047.2 |
| 20260506093824 | 65 | 359 | 4.3 | 10.4 | 0.00 | 0.31 | 0.00 | 52 | 1047.2 |
| 20260506093532 | 65 | 354 | 4.3 | 10.4 | 0.00 | 0.31 | 0.00 | 52 | 1047.2 |
| 20260506093506 | 65 | 278 | 4.3 | 10.4 | 0.00 | 0.31 | 0.00 | 51 | 1047.2 |
| 20260506093456 | 65 | 293 | 4.3 | 10.4 | 0.00 | 0.31 | 0.00 | 52 | 1047.2 |
| 20260506093205 | 65 | 342 | 4.3 | 10.4 | 0.00 | 0.31 | 0.00 | 51 | 1047.2 |
| 20260506093156 | 65 | 359 | 4.3 | 10.4 | 0.00 | 0.31 | 0.00 | 51 | 1047.2 |
| 20260506092830 | 65 | 350 | 3.5 | 10.4 | 0.00 | 0.31 | 0.00 | 51 | 1047.2 |
| 20260506092731 | 65 | 359 | 4.3 | 9.6 | 0.00 | 0.31 | 0.00 | 50 | 1047.2 |
| 20260506092632 | 65 | 330 | 3.5 | 9.6 | 0.00 | 0.31 | 0.00 | 52 | 1047.2 |
| 20260506092605 | 65 | 332 | 3.5 | 9.6 | 0.00 | 0.31 | 0.00 | 52 | 1047.2 |
| 20260506092529 | 65 | 347 | 3.5 | 8.7 | 0.00 | 0.31 | 0.00 | 52 | 1047.2 |
| 20260506092431 | 65 | 354 | 3.5 | 8.7 | 0.00 | 0.31 | 0.00 | 54 | 1047.2 |
| 20260506092329 | 65 | 312 | 3.5 | 8.7 | 0.00 | 0.31 | 0.00 | 54 | 1047.2 |
| 20260506092229 | 65 | 312 | 3.5 | 8.7 | 0.00 | 0.31 | 0.00 | 53 | 1047.2 |
| 20260506092104 | 65 | 329 | 3.5 | 8.7 | 0.00 | 0.31 | 0.00 | 52 | 1047.2 |
| 20260506092029 | 65 | 328 | 4.3 | 10.4 | 0.00 | 0.31 | 0.00 | 53 | 1047.2 |
| 20260506091929 | 65 | 333 | 4.3 | 10.4 | 0.00 | 0.31 | 0.00 | 52 | 1047.3 |
| 20260506091857 | 65 | 308 | 4.3 | 10.4 | 0.00 | 0.31 | 0.00 | 52 | 1047.3 |
| 20260506091851 | 65 | 283 | 4.3 | 10.4 | 0.00 | 0.31 | 0.00 | 52 | 1047.3 |
| 20260506091838 | 65 | 272 | 4.3 | 10.4 | 0.00 | 0.31 | 0.00 | 53 | 1047.3 |
| 20260506091810 | 65 | 274 | 4.3 | 10.4 | 0.00 | 0.31 | 0.00 | 53 | 1047.3 |
| 20260506091547 | 65 | 274 | 4.3 | 10.4 | 0.00 | 0.31 | 0.00 | 53 | 1047.4 |
| 20260506091227 | 64 | 274 | 4.3 | 10.4 | 0.00 | 0.31 | 0.00 | 54 | 1047.4 |
| 20260506091122 | 64 | 274 | 4.3 | 10.4 | 0.00 | 0.31 | 0.00 | 55 | 1047.4 |
| 20260506091104 | 64 | 272 | 4.3 | 10.4 | 0.00 | 0.31 | 0.00 | 55 | 1047.4 |
| 20260506091025 | 64 | 239 | 3.5 | 9.6 | 0.00 | 0.31 | 0.00 | 55 | 1047.3 |
| 20260506090923 | 64 | 276 | 3.5 | 9.6 | 0.00 | 0.31 | 0.00 | 56 | 1047.3 |
| 20260506090822 | 64 | 264 | 3.5 | 9.6 | 0.00 | 0.31 | 0.00 | 56 | 1047.3 |
| 20260506090718 | 64 | 247 | 2.6 | 7.0 | 0.00 | 0.31 | 0.00 | 56 | 1047.3 |
| 20260506090619 | 64 | 328 | 2.6 | 7.0 | 0.00 | 0.31 | 0.00 | 57 | 1047.3 |
| 20260506090603 | 64 | 331 | 2.6 | 7.0 | 0.00 | 0.31 | 0.00 | 57 | 1047.3 |
| 20260506090518 | 64 | 333 | 2.6 | 7.0 | 0.00 | 0.31 | 0.00 | 57 | 1047.3 |
| 20260506090447 | 64 | 253 | 2.6 | 7.0 | 0.00 | 0.31 | 0.00 | 57 | 1047.3 |
| 20260506090440 | 64 | 251 | 3.5 | 7.0 | 0.00 | 0.31 | 0.00 | 57 | 1047.2 |
| 20260506090104 | 64 | 4 | 2.6 | 9.6 | 0.00 | 0.31 | 0.00 | 56 | 1047.2 |
| 20260506090024 | 64 | 8 | 3.5 | 9.6 | 0.00 | 0.31 | 0.00 | 57 | 1047.3 |
| 20260506085913 | 64 | 9 | 3.5 | 9.6 | 0.00 | 0.31 | 0.00 | 57 | 1047.3 |
| 20260506085817 | 64 | 10 | 3.5 | 9.6 | 0.00 | 0.31 | 0.00 | 58 | 1047.3 |
| 20260506085712 | 64 | 320 | 3.5 | 9.6 | 0.00 | 0.31 | 0.00 | 57 | 1047.3 |
| 20260506085603 | 64 | 320 | 3.5 | 9.6 | 0.00 | 0.31 | 0.00 | 56 | 1047.3 |
| 20260506085515 | 64 | 319 | 3.5 | 9.6 | 0.00 | 0.31 | 0.00 | 55 | 1047.3 |
| 20260506085410 | 64 | 319 | 4.3 | 10.4 | 0.00 | 0.31 | 0.00 | 56 | 1047.3 |
| 20260506085309 | 64 | 324 | 3.5 | 10.4 | 0.00 | 0.31 | 0.00 | 56 | 1047.2 |
| 20260506085223 | 64 | 350 | 3.5 | 10.4 | 0.00 | 0.31 | 0.00 | 57 | 1047.3 |
| 20260506085204 | 63 | 359 | 3.5 | 10.4 | 0.00 | 0.31 | 0.00 | 57 | 1047.2 |
| 20260506085155 | 63 | 359 | 3.5 | 10.4 | 0.00 | 0.31 | 0.00 | 57 | 1047.2 |
| 20260506085146 | 63 | 4 | 3.5 | 10.4 | 0.00 | 0.31 | 0.00 | 58 | 1047.3 |
| 20260506085137 | 63 | 341 | 3.5 | 10.4 | 0.00 | 0.31 | 0.00 | 58 | 1047.3 |
| 20260506084858 | 63 | 336 | 3.5 | 10.4 | 0.00 | 0.31 | 0.00 | 58 | 1047.3 |
| 20260506084631 | 63 | 335 | 3.5 | 10.4 | 0.00 | 0.31 | 0.00 | 58 | 1047.3 |
| 20260506084615 | 63 | 359 | 3.5 | 8.7 | 0.00 | 0.31 | 0.00 | 58 | 1047.2 |
| 20260506084337 | 62 | 4 | 3.5 | 8.7 | 0.00 | 0.31 | 0.00 | 56 | 1047.2 |
| 20260506084108 | 62 | 8 | 3.5 | 8.7 | 0.00 | 0.31 | 0.00 | 57 | 1047.2 |
| 20260506084008 | 62 | 15 | 3.5 | 8.7 | 0.00 | 0.31 | 0.00 | 57 | 1047.2 |
| 20260506083903 | 62 | 293 | 3.5 | 9.6 | 0.00 | 0.31 | 0.00 | 58 | 1047.2 |
| 20260506083844 | 62 | 299 | 4.3 | 9.6 | 0.00 | 0.31 | 0.00 | 57 | 1047.2 |
| 20260506083837 | 62 | 308 | 4.3 | 10.4 | 0.00 | 0.31 | 0.00 | 58 | 1047.2 |
| 20260506083824 | 62 | 310 | 4.3 | 10.4 | 0.00 | 0.31 | 0.00 | 59 | 1047.2 |
| 20260506083501 | 62 | 302 | 4.3 | 10.4 | 0.00 | 0.31 | 0.00 | 59 | 1047.2 |
| 20260506083401 | 62 | 310 | 4.3 | 10.4 | 0.00 | 0.31 | 0.00 | 58 | 1047.1 |
| 20260506083301 | 62 | 310 | 4.3 | 10.4 | 0.00 | 0.31 | 0.00 | 58 | 1047.1 |
| 20260506083200 | 62 | 303 | 4.3 | 10.4 | 0.00 | 0.31 | 0.00 | 57 | 1047.1 |
| 20260506083112 | 62 | 304 | 4.3 | 10.4 | 0.00 | 0.31 | 0.00 | 56 | 1047.1 |
| 20260506083101 | 62 | 304 | 4.3 | 10.4 | 0.00 | 0.31 | 0.00 | 56 | 1047.1 |
| 20260506083034 | 62 | 301 | 4.3 | 10.4 | 0.00 | 0.31 | 0.00 | 58 | 1047.2 |
| 20260506083022 | 62 | 290 | 4.3 | 10.4 | 0.00 | 0.31 | 0.00 | 57 | 1047.2 |
| 20260506082659 | 63 | 308 | 3.5 | 10.4 | 0.00 | 0.31 | 0.00 | 58 | 1047.2 |
| 20260506082614 | 63 | 324 | 3.5 | 10.4 | 0.00 | 0.31 | 0.00 | 58 | 1047.2 |
| 20260506082600 | 63 | 324 | 3.5 | 10.4 | 0.00 | 0.31 | 0.00 | 58 | 1047.2 |
| 20260506082523 | 63 | 318 | 3.5 | 8.7 | 0.00 | 0.31 | 0.00 | 59 | 1047.2 |
| 20260506082515 | 63 | 303 | 3.5 | 8.7 | 0.00 | 0.31 | 0.00 | 59 | 1047.2 |
| 20260506082152 | 63 | 335 | 3.5 | 8.7 | 0.00 | 0.31 | 0.00 | 59 | 1047.2 |
| 20260506082104 | 63 | 334 | 3.5 | 8.7 | 0.00 | 0.31 | 0.00 | 59 | 1047.2 |
| 20260506082053 | 63 | 335 | 3.5 | 8.7 | 0.00 | 0.31 | 0.00 | 59 | 1047.2 |
| 20260506081954 | 63 | 268 | 3.5 | 8.7 | 0.00 | 0.31 | 0.00 | 61 | 1047.2 |
| 20260506081852 | 63 | 267 | 3.5 | 8.7 | 0.00 | 0.31 | 0.00 | 61 | 1047.2 |
| 20260506081747 | 62 | 272 | 2.6 | 8.7 | 0.00 | 0.31 | 0.00 | 61 | 1047.2 |
| 20260506081646 | 62 | 303 | 2.6 | 8.7 | 0.00 | 0.31 | 0.00 | 61 | 1047.2 |
| 20260506081607 | 62 | 274 | 2.6 | 8.7 | 0.00 | 0.31 | 0.00 | 61 | 1047.1 |
| 20260506081547 | 62 | 274 | 2.6 | 8.7 | 0.00 | 0.31 | 0.00 | 61 | 1047.1 |
| 20260506081509 | 62 | 274 | 2.6 | 8.7 | 0.00 | 0.31 | 0.00 | 62 | 1047.1 |
| 20260506081458 | 62 | 278 | 1.7 | 6.1 | 0.00 | 0.31 | 0.00 | 62 | 1047.1 |
| 20260506081452 | 62 | 250 | 1.7 | 6.1 | 0.00 | 0.31 | 0.00 | 63 | 1047.2 |
| 20260506081429 | 62 | 243 | 1.7 | 6.1 | 0.00 | 0.31 | 0.00 | 63 | 1047.1 |
| 20260506081422 | 62 | 243 | 1.7 | 6.1 | 0.00 | 0.31 | 0.00 | 63 | 1047.1 |
| 20260506081415 | 62 | 243 | 1.7 | 6.1 | 0.00 | 0.31 | 0.00 | 64 | 1047.1 |
| 20260506081351 | 62 | 243 | 1.7 | 6.1 | 0.00 | 0.31 | 0.00 | 65 | 1047.1 |
| 20260506080852 | 61 | 241 | 1.7 | 6.1 | 0.00 | 0.31 | 0.00 | 64 | 1047.0 |
| 20260506080845 | 61 | 236 | 1.7 | 6.1 | 0.00 | 0.31 | 0.00 | 64 | 1047.0 |
| 20260506080837 | 61 | 354 | 1.7 | 4.3 | 0.00 | 0.31 | 0.00 | 65 | 1047.0 |
| 20260506080829 | 61 | 12 | 1.7 | 4.3 | 0.00 | 0.31 | 0.00 | 65 | 1047.0 |
| 20260506080559 | 61 | 12 | 1.7 | 4.3 | 0.00 | 0.31 | 0.00 | 65 | 1047.0 |
| 20260506080545 | 61 | 12 | 1.7 | 4.3 | 0.00 | 0.31 | 0.00 | 64 | 1047.0 |
| 20260506080538 | 61 | 12 | 1.7 | 7.0 | 0.00 | 0.31 | 0.00 | 64 | 1046.9 |
| 20260506080316 | 60 | 10 | 1.7 | 7.0 | 0.00 | 0.31 | 0.00 | 66 | 1047.0 |
| 20260506073515 | 59 | 150 | 1.7 | 5.2 | 0.00 | 0.31 | 0.00 | 68 | 1046.8 |
| 20260506073415 | 58 | 246 | 1.7 | 4.3 | 0.00 | 0.31 | 0.00 | 68 | 1046.7 |
| 20260506073316 | 58 | 236 | 1.7 | 4.3 | 0.00 | 0.31 | 0.00 | 68 | 1046.7 |
| 20260506073215 | 58 | 240 | 1.7 | 7.0 | 0.00 | 0.31 | 0.00 | 70 | 1046.7 |
| 20260506073104 | 58 | 247 | 1.7 | 7.0 | 0.00 | 0.31 | 0.00 | 70 | 1046.7 |
| 20260506073018 | 58 | 172 | 2.6 | 7.0 | 0.00 | 0.31 | 0.00 | 70 | 1046.7 |
| 20260506072915 | 58 | 171 | 2.6 | 7.0 | 0.00 | 0.31 | 0.00 | 69 | 1046.7 |
| 20260506072816 | 58 | 172 | 2.6 | 7.0 | 0.00 | 0.31 | 0.00 | 68 | 1046.7 |
| 20260506072715 | 58 | 172 | 2.6 | 7.0 | 0.00 | 0.31 | 0.00 | 69 | 1046.7 |
| 20260506072615 | 58 | 172 | 3.5 | 7.0 | 0.00 | 0.31 | 0.00 | 70 | 1046.7 |
| 20260506072600 | 58 | 172 | 3.5 | 7.0 | 0.00 | 0.31 | 0.00 | 70 | 1046.7 |
| 20260506072521 | 58 | 172 | 3.5 | 7.0 | 0.00 | 0.31 | 0.00 | 70 | 1046.7 |
| 20260506072510 | 58 | 172 | 3.5 | 7.0 | 0.00 | 0.31 | 0.00 | 70 | 1046.7 |
| 20260506072503 | 58 | 170 | 3.5 | 7.0 | 0.00 | 0.31 | 0.00 | 69 | 1046.7 |
| 20260506072449 | 58 | 156 | 3.5 | 7.8 | 0.00 | 0.31 | 0.00 | 69 | 1046.7 |
| 20260506072441 | 58 | 156 | 3.5 | 7.8 | 0.00 | 0.31 | 0.00 | 70 | 1046.7 |
| 20260506072200 | 58 | 156 | 2.6 | 7.8 | 0.00 | 0.31 | 0.00 | 72 | 1046.7 |
| 20260506071934 | 58 | 157 | 2.6 | 7.8 | 0.00 | 0.31 | 0.00 | 72 | 1046.7 |
| 20260506071613 | 58 | 144 | 2.6 | 7.8 | 0.00 | 0.31 | 0.00 | 70 | 1046.7 |
| 20260506071542 | 58 | 133 | 2.6 | 7.8 | 0.00 | 0.31 | 0.00 | 69 | 1046.7 |
| 20260506071510 | 58 | 134 | 2.6 | 7.8 | 0.00 | 0.31 | 0.00 | 70 | 1046.7 |
| 20260506071410 | 58 | 133 | 1.7 | 7.8 | 0.00 | 0.31 | 0.00 | 69 | 1046.6 |
| 20260506071311 | 58 | 134 | 1.7 | 7.8 | 0.00 | 0.31 | 0.00 | 69 | 1046.7 |
| 20260506071209 | 58 | 140 | 1.7 | 7.0 | 0.00 | 0.31 | 0.00 | 69 | 1046.7 |
| 20260506071115 | 58 | 181 | 1.7 | 6.1 | 0.00 | 0.31 | 0.00 | 69 | 1046.7 |
| 20260506071101 | 58 | 182 | 1.7 | 6.1 | 0.00 | 0.31 | 0.00 | 69 | 1046.8 |
| 20260506071051 | 58 | 182 | 1.7 | 6.1 | 0.00 | 0.31 | 0.00 | 70 | 1046.8 |
| 20260506071043 | 58 | 182 | 1.7 | 6.1 | 0.00 | 0.31 | 0.00 | 71 | 1046.7 |
| 20260506071021 | 58 | 286 | 1.7 | 6.1 | 0.00 | 0.31 | 0.00 | 71 | 1046.7 |
| 20260506071012 | 57 | 285 | 1.7 | 6.1 | 0.00 | 0.31 | 0.00 | 71 | 1046.7 |
| 20260506070505 | 57 | 286 | 1.7 | 6.1 | 0.00 | 0.31 | 0.00 | 71 | 1046.7 |
| 20260506070404 | 57 | 285 | 1.7 | 6.1 | 0.00 | 0.31 | 0.00 | 74 | 1046.7 |
| 20260506070304 | 57 | 51 | 1.7 | 3.5 | 0.00 | 0.31 | 0.00 | 73 | 1046.7 |
| 20260506070203 | 57 | 51 | 1.7 | 3.5 | 0.00 | 0.31 | 0.00 | 73 | 1046.7 |
| 20260506070106 | 57 | 51 | 1.7 | 3.5 | 0.00 | 0.31 | 0.00 | 73 | 1046.7 |
| 20260506062301 | 54 | 34 | 1.7 | 3.5 | 0.00 | 0.31 | 0.00 | 78 | 1046.9 |
| 20260506062027 | 54 | 35 | 1.7 | 3.5 | 0.00 | 0.31 | 0.00 | 78 | 1046.9 |
| 20260506061939 | 54 | 35 | 1.7 | 5.2 | 0.00 | 0.31 | 0.00 | 78 | 1046.9 |
| 20260506061839 | 53 | 35 | 1.7 | 5.2 | 0.00 | 0.31 | 0.00 | 78 | 1046.9 |
| 20260506061738 | 53 | 35 | 1.7 | 5.2 | 0.00 | 0.31 | 0.00 | 78 | 1046.9 |
| 20260506061632 | 53 | 35 | 1.7 | 6.1 | 0.00 | 0.31 | 0.00 | 78 | 1046.9 |
| 20260506061525 | 53 | 35 | 1.7 | 6.1 | 0.00 | 0.31 | 0.00 | 79 | 1046.9 |
| 20260506061503 | 53 | 35 | 1.7 | 6.1 | 0.00 | 0.31 | 0.00 | 79 | 1046.9 |
| 20260506061453 | 53 | 36 | 1.7 | 6.1 | 0.00 | 0.31 | 0.00 | 79 | 1046.9 |
| 20260506061128 | 53 | 36 | 1.7 | 6.1 | 0.00 | 0.31 | 0.00 | 80 | 1046.9 |
| 20260506061026 | 53 | 262 | 1.7 | 6.1 | 0.00 | 0.31 | 0.00 | 80 | 1046.9 |
| 20260506061016 | 52 | 205 | 1.7 | 6.1 | 0.00 | 0.31 | 0.00 | 80 | 1046.9 |
| 20260506061008 | 52 | 204 | 1.7 | 6.1 | 0.00 | 0.31 | 0.00 | 81 | 1046.8 |
| 20260506060618 | 52 | 217 | 0.9 | 4.3 | 0.00 | 0.31 | 0.00 | 82 | 1046.9 |
| 20260506060518 | 52 | 151 | 0.9 | 4.3 | 0.00 | 0.31 | 0.00 | 82 | 1046.9 |
| 20260506060418 | 52 | 151 | 0.9 | 4.3 | 0.00 | 0.31 | 0.00 | 84 | 1046.9 |
| 20260506060349 | 52 | 152 | 0.9 | 4.3 | 0.00 | 0.31 | 0.00 | 84 | 1046.8 |
| 20260506060343 | 52 | 150 | 0.9 | 4.3 | 0.00 | 0.31 | 0.00 | 84 | 1046.8 |
| 20260506060333 | 52 | 149 | 1.7 | 4.3 | 0.00 | 0.31 | 0.00 | 84 | 1046.8 |
| 20260506060315 | 51 | 149 | 1.7 | 4.3 | 0.00 | 0.31 | 0.00 | 84 | 1046.8 |
| 20260506050654 | 44 | 159 | 1.7 | 4.3 | 0.00 | 0.31 | 0.00 | 92 | 1046.5 |
| 20260506050643 | 44 | 160 | 1.7 | 4.3 | 0.00 | 0.31 | 0.00 | 92 | 1046.5 |
| 20260506050633 | 44 | 159 | 1.7 | 4.3 | 0.00 | 0.31 | 0.00 | 92 | 1046.5 |
| 20260506050613 | 44 | 160 | 1.7 | 4.3 | 0.00 | 0.31 | 0.00 | 92 | 1046.5 |
| 20260506050603 | 44 | 159 | 1.7 | 4.3 | 0.00 | 0.31 | 0.00 | 92 | 1046.5 |
| 20260506050555 | 44 | 159 | 1.7 | 4.3 | 0.00 | 0.31 | 0.00 | 92 | 1046.4 |
| 20260506050106 | 44 | 160 | 1.7 | 4.3 | 0.00 | 0.31 | 0.00 | 92 | 1046.5 |
| 20260506045005 | 45 | 158 | 1.7 | 5.2 | 0.00 | 0.31 | 0.00 | 92 | 1046.3 |
| 20260506044919 | 45 | 160 | 1.7 | 5.2 | 0.00 | 0.31 | 0.00 | 92 | 1046.3 |
| 20260506044837 | 45 | 159 | 1.7 | 5.2 | 0.00 | 0.31 | 0.00 | 92 | 1046.4 |
| 20260506044830 | 45 | 160 | 1.7 | 5.2 | 0.00 | 0.31 | 0.00 | 92 | 1046.3 |
| 20260506044818 | 45 | 159 | 1.7 | 5.2 | 0.00 | 0.31 | 0.00 | 92 | 1046.3 |
| 20260506044808 | 45 | 159 | 1.7 | 5.2 | 0.00 | 0.31 | 0.00 | 92 | 1046.3 |
| 20260506044538 | 45 | 158 | 1.7 | 5.2 | 0.00 | 0.31 | 0.00 | 92 | 1046.3 |
| 20260506044234 | 45 | 158 | 1.7 | 5.2 | 0.00 | 0.31 | 0.00 | 92 | 1046.2 |
| 20260506044226 | 45 | 159 | 1.7 | 5.2 | 0.00 | 0.31 | 0.00 | 92 | 1046.2 |
| 20260506044203 | 45 | 159 | 2.6 | 5.2 | 0.00 | 0.31 | 0.00 | 92 | 1046.2 |
| 20260506044153 | 45 | 158 | 2.6 | 5.2 | 0.00 | 0.31 | 0.00 | 92 | 1046.2 |
| 20260506043610 | 45 | 158 | 2.6 | 5.2 | 0.00 | 0.31 | 0.00 | 92 | 1046.2 |
| 20260506043538 | 45 | 156 | 2.6 | 5.2 | 0.00 | 0.31 | 0.00 | 92 | 1046.2 |
| 20260506043529 | 45 | 156 | 2.6 | 5.2 | 0.00 | 0.31 | 0.00 | 92 | 1046.2 |
| 20260506043204 | 44 | 155 | 2.6 | 5.2 | 0.00 | 0.31 | 0.00 | 92 | 1046.2 |
| 20260506043105 | 44 | 155 | 2.6 | 5.2 | 0.00 | 0.31 | 0.00 | 92 | 1046.2 |
| 20260506043046 | 44 | 156 | 2.6 | 5.2 | 0.00 | 0.31 | 0.00 | 92 | 1046.2 |
| 20260506043037 | 44 | 155 | 2.6 | 5.2 | 0.00 | 0.31 | 0.00 | 92 | 1046.2 |
| 20260506043029 | 44 | 155 | 2.6 | 5.2 | 0.00 | 0.31 | 0.00 | 92 | 1046.2 |
| 20260506042704 | 45 | 149 | 2.6 | 4.3 | 0.00 | 0.31 | 0.00 | 92 | 1046.2 |
| 20260506042604 | 45 | 149 | 2.6 | 4.3 | 0.00 | 0.31 | 0.00 | 92 | 1046.2 |
| 20260506042509 | 45 | 149 | 2.6 | 4.3 | 0.00 | 0.31 | 0.00 | 92 | 1046.1 |
| 20260506042500 | 45 | 149 | 2.6 | 4.3 | 0.00 | 0.31 | 0.00 | 92 | 1046.1 |
| 20260506042404 | 45 | 149 | 2.6 | 4.3 | 0.00 | 0.31 | 0.00 | 92 | 1046.1 |
| 20260506042305 | 45 | 149 | 2.6 | 4.3 | 0.00 | 0.31 | 0.00 | 92 | 1046.1 |
| 20260506042204 | 45 | 148 | 2.6 | 4.3 | 0.00 | 0.31 | 0.00 | 92 | 1046.1 |
| 20260506042105 | 45 | 149 | 2.6 | 5.2 | 0.00 | 0.31 | 0.00 | 92 | 1046.1 |
| 20260506042011 | 45 | 149 | 2.6 | 5.2 | 0.00 | 0.31 | 0.00 | 92 | 1046.1 |
| 20260506042001 | 45 | 149 | 2.6 | 5.2 | 0.00 | 0.31 | 0.00 | 92 | 1046.1 |
| 20260506041903 | 45 | 149 | 2.6 | 5.2 | 0.00 | 0.31 | 0.00 | 92 | 1046.1 |
| 20260506041803 | 45 | 149 | 2.6 | 5.2 | 0.00 | 0.31 | 0.00 | 92 | 1046.1 |
| 20260506041704 | 45 | 149 | 2.6 | 5.2 | 0.00 | 0.31 | 0.00 | 92 | 1046.1 |
| 20260506041645 | 45 | 149 | 2.6 | 5.2 | 0.00 | 0.31 | 0.00 | 92 | 1046.1 |
| 20260506041639 | 45 | 149 | 2.6 | 5.2 | 0.00 | 0.31 | 0.00 | 92 | 1046.1 |
| 20260506041629 | 45 | 149 | 2.6 | 5.2 | 0.00 | 0.31 | 0.00 | 92 | 1046.1 |
| 20260506041303 | 45 | 149 | 2.6 | 5.2 | 0.00 | 0.31 | 0.00 | 92 | 1046.1 |
| 20260506041203 | 45 | 149 | 2.6 | 5.2 | 0.00 | 0.31 | 0.00 | 92 | 1046.2 |
| 20260506041104 | 45 | 147 | 2.6 | 4.3 | 0.00 | 0.31 | 0.00 | 92 | 1046.2 |
| 20260506041029 | 45 | 147 | 2.6 | 4.3 | 0.00 | 0.31 | 0.00 | 91 | 1046.1 |
| 20260506041017 | 45 | 147 | 2.6 | 4.3 | 0.00 | 0.31 | 0.00 | 91 | 1046.1 |
| 20260506040956 | 45 | 147 | 2.6 | 4.3 | 0.00 | 0.31 | 0.00 | 91 | 1046.2 |
| 20260506040948 | 45 | 147 | 2.6 | 4.3 | 0.00 | 0.31 | 0.00 | 91 | 1046.1 |
| 20260506040940 | 45 | 147 | 2.6 | 4.3 | 0.00 | 0.31 | 0.00 | 91 | 1046.1 |
| 20260506040930 | 45 | 147 | 2.6 | 3.5 | 0.00 | 0.31 | 0.00 | 92 | 1046.2 |
| 20260506040918 | 45 | 146 | 2.6 | 3.5 | 0.00 | 0.31 | 0.00 | 92 | 1046.1 |
| 20260506040637 | 45 | 144 | 2.6 | 3.5 | 0.00 | 0.31 | 0.00 | 91 | 1046.1 |
| 20260506040058 | 45 | 143 | 2.6 | 3.5 | 0.00 | 0.31 | 0.00 | 91 | 1046.1 |
| 20260506040036 | 45 | 143 | 2.6 | 3.5 | 0.00 | 0.31 | 0.00 | 91 | 1046.1 |
| 20260506040028 | 45 | 141 | 1.7 | 3.5 | 0.00 | 0.31 | 0.00 | 91 | 1046.1 |
| 20260506035656 | 45 | 139 | 1.7 | 3.5 | 0.00 | 0.31 | 0.00 | 91 | 1046.0 |
| 20260506035556 | 45 | 139 | 1.7 | 3.5 | 0.00 | 0.31 | 0.00 | 91 | 1046.1 |
| 20260506035456 | 45 | 140 | 1.7 | 3.5 | 0.00 | 0.31 | 0.00 | 91 | 1046.1 |
| 20260506035402 | 45 | 140 | 1.7 | 3.5 | 0.00 | 0.31 | 0.00 | 91 | 1046.1 |
| 20260506035352 | 45 | 139 | 1.7 | 3.5 | 0.00 | 0.31 | 0.00 | 91 | 1046.1 |
| 20260506035343 | 45 | 139 | 1.7 | 2.6 | 0.00 | 0.31 | 0.00 | 91 | 1046.1 |
| 20260506035331 | 45 | 139 | 1.7 | 2.6 | 0.00 | 0.31 | 0.00 | 91 | 1046.0 |
| 20260506035310 | 45 | 139 | 0.9 | 2.6 | 0.00 | 0.31 | 0.00 | 91 | 1046.0 |
| 20260506035305 | 45 | 139 | 0.9 | 2.6 | 0.00 | 0.31 | 0.00 | 91 | 1046.1 |
| 20260506035254 | 45 | 139 | 1.7 | 2.6 | 0.00 | 0.31 | 0.00 | 91 | 1046.1 |
| 20260506035247 | 45 | 139 | 1.7 | 2.6 | 0.00 | 0.31 | 0.00 | 91 | 1046.1 |
| 20260506035007 | 45 | 139 | 1.7 | 2.6 | 0.00 | 0.31 | 0.00 | 91 | 1046.1 |
| 20260506034959 | 45 | 139 | 1.7 | 2.6 | 0.00 | 0.31 | 0.00 | 91 | 1046.1 |
| 20260506034734 | 45 | 139 | 1.7 | 2.6 | 0.00 | 0.31 | 0.00 | 91 | 1046.0 |
| 20260506034726 | 45 | 139 | 1.7 | 2.6 | 0.00 | 0.31 | 0.00 | 91 | 1046.0 |
| 20260506034715 | 45 | 139 | 1.7 | 2.6 | 0.00 | 0.31 | 0.00 | 91 | 1046.0 |
| 20260506034449 | 45 | 139 | 1.7 | 2.6 | 0.00 | 0.31 | 0.00 | 91 | 1046.0 |
| 20260506034435 | 45 | 139 | 1.7 | 2.6 | 0.00 | 0.31 | 0.00 | 91 | 1046.0 |
| 20260506033725 | 45 | 139 | 0.9 | 2.6 | 0.00 | 0.31 | 0.00 | 91 | 1046.0 |
| 20260506033714 | 45 | 139 | 0.9 | 2.6 | 0.00 | 0.31 | 0.00 | 91 | 1046.0 |
| 20260506033702 | 45 | 139 | 0.9 | 2.6 | 0.00 | 0.31 | 0.00 | 91 | 1046.0 |
| 20260506033439 | 45 | 138 | 0.9 | 2.6 | 0.00 | 0.31 | 0.00 | 91 | 1045.9 |
| 20260506032842 | 45 | 139 | 0.0 | 1.7 | 0.00 | 0.31 | 0.00 | 91 | 1045.9 |
| 20260506032743 | 46 | 139 | 0.0 | 1.7 | 0.00 | 0.31 | 0.00 | 91 | 1045.9 |
| 20260506032721 | 46 | 139 | 0.0 | 1.7 | 0.00 | 0.31 | 0.00 | 91 | 1045.9 |
| 20260506032711 | 46 | 139 | 0.0 | 1.7 | 0.00 | 0.31 | 0.00 | 91 | 1045.8 |
| 20260506032701 | 46 | 139 | 0.0 | 1.7 | 0.00 | 0.31 | 0.00 | 91 | 1045.8 |
| 20260506032342 | 46 | 139 | 0.0 | 1.7 | 0.00 | 0.31 | 0.00 | 91 | 1045.9 |
| 20260506032242 | 46 | 139 | 0.0 | 1.7 | 0.00 | 0.31 | 0.00 | 91 | 1045.9 |
| 20260506032226 | 46 | 139 | 0.9 | 1.7 | 0.00 | 0.31 | 0.00 | 91 | 1045.9 |
| 20260506032218 | 46 | 139 | 0.9 | 2.6 | 0.00 | 0.31 | 0.00 | 91 | 1045.8 |
| 20260506032209 | 46 | 139 | 0.9 | 3.5 | 0.00 | 0.31 | 0.00 | 91 | 1045.8 |
| 20260506031838 | 46 | 139 | 0.9 | 3.5 | 0.00 | 0.31 | 0.00 | 91 | 1045.8 |
| 20260506031736 | 46 | 139 | 0.9 | 3.5 | 0.00 | 0.31 | 0.00 | 90 | 1045.8 |
| 20260506031657 | 46 | 139 | 0.9 | 3.5 | 0.00 | 0.31 | 0.00 | 90 | 1045.8 |
| 20260506031648 | 46 | 139 | 0.9 | 3.5 | 0.00 | 0.31 | 0.00 | 90 | 1045.8 |
| 20260506031624 | 46 | 139 | 0.9 | 3.5 | 0.00 | 0.31 | 0.00 | 90 | 1045.8 |
| 20260506031613 | 46 | 139 | 0.9 | 3.5 | 0.00 | 0.31 | 0.00 | 90 | 1045.8 |
| 20260506031032 | 46 | 139 | 0.0 | 3.5 | 0.00 | 0.31 | 0.00 | 90 | 1045.8 |
| 20260506031003 | 46 | 139 | 0.0 | 3.5 | 0.00 | 0.31 | 0.00 | 90 | 1045.8 |
| 20260506030931 | 46 | 139 | 0.0 | 3.5 | 0.00 | 0.31 | 0.00 | 90 | 1045.8 |
| 20260506030832 | 46 | 137 | 0.0 | 0.0 | 0.00 | 0.31 | 0.00 | 90 | 1045.7 |
| 20260506030731 | 46 | 137 | 0.0 | 0.0 | 0.00 | 0.31 | 0.00 | 90 | 1045.7 |
| 20260506030631 | 46 | 138 | 0.0 | 0.0 | 0.00 | 0.31 | 0.00 | 90 | 1045.8 |
| 20260506030531 | 46 | 137 | 0.0 | 0.0 | 0.00 | 0.31 | 0.00 | 90 | 1045.8 |
| 20260506030519 | 46 | 139 | 0.0 | 0.0 | 0.00 | 0.31 | 0.00 | 90 | 1045.8 |
| 20260506030510 | 46 | 137 | 0.0 | 0.0 | 0.00 | 0.31 | 0.00 | 90 | 1045.8 |
| 20260506030501 | 46 | 137 | 0.0 | 0.0 | 0.00 | 0.31 | 0.00 | 90 | 1045.8 |
| 20260506030130 | 47 | 138 | 0.0 | 0.0 | 0.00 | 0.31 | 0.00 | 90 | 1045.8 |
| 20260506030030 | 47 | 137 | 0.0 | 0.0 | 0.00 | 0.31 | 0.00 | 90 | 1045.8 |
| 20260506025929 | 47 | 137 | 0.0 | 0.0 | 0.00 | 0.31 | 0.00 | 90 | 1045.8 |
| 20260506025828 | 47 | 137 | 0.0 | 0.0 | 0.00 | 0.31 | 0.00 | 90 | 1045.8 |
| 20260506025728 | 47 | 138 | 0.0 | 0.0 | 0.00 | 0.31 | 0.00 | 90 | 1045.8 |
| 20260506025630 | 47 | 138 | 0.0 | 0.0 | 0.00 | 0.31 | 0.00 | 90 | 1045.7 |
| 20260506025526 | 47 | 137 | 0.0 | 0.0 | 0.00 | 0.31 | 0.00 | 90 | 1045.7 |
| 20260506025456 | 47 | 137 | 0.0 | 0.0 | 0.00 | 0.31 | 0.00 | 90 | 1045.7 |
| 20260506025426 | 47 | 138 | 0.0 | 0.0 | 0.00 | 0.31 | 0.00 | 90 | 1045.7 |
| 20260506025327 | 47 | 137 | 0.0 | 0.0 | 0.00 | 0.31 | 0.00 | 89 | 1045.7 |
| 20260506025224 | 47 | 138 | 0.0 | 0.0 | 0.00 | 0.31 | 0.00 | 89 | 1045.7 |
| 20260506025124 | 47 | 137 | 0.0 | 0.0 | 0.00 | 0.31 | 0.00 | 89 | 1045.7 |
| 20260506025028 | 47 | 137 | 0.0 | 0.0 | 0.00 | 0.31 | 0.00 | 89 | 1045.7 |
| 20260506025018 | 47 | 137 | 0.0 | 0.0 | 0.00 | 0.31 | 0.00 | 89 | 1045.7 |
| 20260506025009 | 47 | 138 | 0.0 | 0.0 | 0.00 | 0.31 | 0.00 | 89 | 1045.7 |
| 20260506024956 | 47 | 137 | 0.0 | 0.0 | 0.00 | 0.31 | 0.00 | 89 | 1045.6 |
| 20260506024730 | 47 | 137 | 0.0 | 0.0 | 0.00 | 0.31 | 0.00 | 89 | 1045.6 |
| 20260506024718 | 47 | 137 | 0.0 | 0.0 | 0.00 | 0.31 | 0.00 | 89 | 1045.6 |
| 20260506024419 | 47 | 137 | 0.0 | 0.0 | 0.00 | 0.31 | 0.00 | 89 | 1045.6 |
| 20260506024344 | 47 | 137 | 0.0 | 0.0 | 0.00 | 0.31 | 0.00 | 89 | 1045.6 |
| 20260506024336 | 48 | 137 | 0.0 | 0.0 | 0.00 | 0.31 | 0.00 | 89 | 1045.6 |
| 20260506024018 | 48 | 137 | 0.0 | 0.0 | 0.00 | 0.31 | 0.00 | 89 | 1045.6 |
| 20260506023959 | 48 | 138 | 0.0 | 0.0 | 0.00 | 0.31 | 0.00 | 89 | 1045.6 |
| 20260506023916 | 48 | 137 | 0.0 | 0.0 | 0.00 | 0.31 | 0.00 | 88 | 1045.6 |
| 20260506023835 | 48 | 137 | 0.0 | 0.0 | 0.00 | 0.31 | 0.00 | 88 | 1045.6 |
| 20260506023824 | 48 | 137 | 0.0 | 0.0 | 0.00 | 0.31 | 0.00 | 88 | 1045.6 |
| 20260506023816 | 48 | 137 | 0.0 | 0.0 | 0.00 | 0.31 | 0.00 | 88 | 1045.6 |
| 20260506023544 | 48 | 137 | 0.0 | 0.0 | 0.00 | 0.31 | 0.00 | 88 | 1045.6 |
| 20260506023537 | 48 | 137 | 0.0 | 1.7 | 0.00 | 0.31 | 0.00 | 88 | 1045.6 |
| 20260506023527 | 48 | 138 | 0.0 | 1.7 | 0.00 | 0.31 | 0.00 | 88 | 1045.6 |
| 20260506023516 | 48 | 137 | 0.0 | 1.7 | 0.00 | 0.31 | 0.00 | 88 | 1045.6 |
| 20260506023507 | 48 | 138 | 0.0 | 1.7 | 0.00 | 0.31 | 0.00 | 88 | 1045.7 |
| 20260506023452 | 48 | 137 | 0.0 | 1.7 | 0.00 | 0.31 | 0.00 | 87 | 1045.6 |
| 20260506023442 | 48 | 137 | 0.0 | 1.7 | 0.00 | 0.31 | 0.00 | 87 | 1045.6 |
| 20260506023435 | 49 | 138 | 0.0 | 1.7 | 0.00 | 0.31 | 0.00 | 87 | 1045.6 |
| 20260506023156 | 49 | 137 | 0.9 | 2.6 | 0.00 | 0.31 | 0.00 | 88 | 1045.6 |
| 20260506022449 | 49 | 137 | 1.7 | 3.5 | 0.00 | 0.31 | 0.00 | 87 | 1045.6 |
| 20260506022441 | 49 | 139 | 1.7 | 3.5 | 0.00 | 0.31 | 0.00 | 87 | 1045.6 |
| 20260506022117 | 49 | 137 | 1.7 | 3.5 | 0.00 | 0.31 | 0.00 | 87 | 1045.6 |
| 20260506022024 | 49 | 137 | 1.7 | 3.5 | 0.00 | 0.31 | 0.00 | 87 | 1045.6 |
| 20260506021957 | 49 | 137 | 1.7 | 3.5 | 0.00 | 0.31 | 0.00 | 87 | 1045.6 |
| 20260506021916 | 49 | 137 | 1.7 | 3.5 | 0.00 | 0.31 | 0.00 | 87 | 1045.6 |
| 20260506021816 | 49 | 137 | 1.7 | 3.5 | 0.00 | 0.31 | 0.00 | 87 | 1045.6 |
| 20260506021717 | 49 | 137 | 1.7 | 3.5 | 0.00 | 0.31 | 0.00 | 87 | 1045.6 |
| 20260506021656 | 49 | 137 | 1.7 | 3.5 | 0.00 | 0.31 | 0.00 | 87 | 1045.6 |
| 20260506021646 | 49 | 138 | 1.7 | 4.3 | 0.00 | 0.31 | 0.00 | 87 | 1045.6 |
| 20260506021637 | 49 | 138 | 1.7 | 4.3 | 0.00 | 0.31 | 0.00 | 87 | 1045.6 |
| 20260506021312 | 49 | 138 | 1.7 | 4.3 | 0.00 | 0.31 | 0.00 | 87 | 1045.6 |
| 20260506021212 | 49 | 138 | 1.7 | 4.3 | 0.00 | 0.31 | 0.00 | 87 | 1045.6 |
| 20260506021112 | 49 | 138 | 1.7 | 4.3 | 0.00 | 0.31 | 0.00 | 86 | 1045.6 |
| 20260506021053 | 49 | 138 | 1.7 | 4.3 | 0.00 | 0.31 | 0.00 | 86 | 1045.6 |
| 20260506021044 | 49 | 138 | 1.7 | 4.3 | 0.00 | 0.31 | 0.00 | 86 | 1045.6 |
| 20260506021037 | 49 | 138 | 1.7 | 4.3 | 0.00 | 0.31 | 0.00 | 86 | 1045.5 |
| 20260506020711 | 49 | 138 | 1.7 | 4.3 | 0.00 | 0.31 | 0.00 | 86 | 1045.6 |
| 20260506020613 | 49 | 138 | 1.7 | 4.3 | 0.00 | 0.31 | 0.00 | 85 | 1045.6 |
| 20260506020512 | 50 | 281 | 1.7 | 3.5 | 0.00 | 0.31 | 0.00 | 85 | 1045.5 |
| 20260506020457 | 50 | 281 | 1.7 | 3.5 | 0.00 | 0.31 | 0.00 | 85 | 1045.5 |
| 20260506020412 | 50 | 280 | 1.7 | 7.0 | 0.00 | 0.31 | 0.00 | 85 | 1045.5 |
| 20260506020312 | 50 | 281 | 1.7 | 7.0 | 0.00 | 0.31 | 0.00 | 85 | 1045.5 |
| 20260506020212 | 50 | 280 | 1.7 | 7.0 | 0.00 | 0.31 | 0.00 | 85 | 1045.5 |
| 20260506020147 | 50 | 280 | 1.7 | 7.0 | 0.00 | 0.31 | 0.00 | 85 | 1045.5 |
| 20260506020138 | 50 | 281 | 1.7 | 7.0 | 0.00 | 0.31 | 0.00 | 84 | 1045.5 |
| 20260506020128 | 50 | 282 | 1.7 | 7.0 | 0.00 | 0.31 | 0.00 | 84 | 1045.5 |
| 20260506020117 | 50 | 282 | 1.7 | 7.0 | 0.00 | 0.31 | 0.00 | 84 | 1045.4 |
| 20260506015847 | 50 | 281 | 0.9 | 7.0 | 0.00 | 0.31 | 0.00 | 84 | 1045.4 |
| 20260506015512 | 50 | 281 | 0.9 | 7.0 | 0.00 | 0.31 | 0.00 | 84 | 1045.4 |
| 20260506015456 | 50 | 282 | 0.9 | 7.0 | 0.00 | 0.31 | 0.00 | 84 | 1045.4 |
| 20260506015414 | 50 | 292 | 0.9 | 4.3 | 0.00 | 0.31 | 0.00 | 84 | 1045.4 |
| 20260506015312 | 50 | 290 | 0.9 | 4.3 | 0.00 | 0.31 | 0.00 | 85 | 1045.4 |
| 20260506015212 | 50 | 289 | 0.9 | 7.8 | 0.00 | 0.31 | 0.00 | 85 | 1045.4 |
| 20260506015112 | 50 | 289 | 0.9 | 7.8 | 0.00 | 0.31 | 0.00 | 85 | 1045.4 |
| 20260506015012 | 50 | 290 | 0.9 | 7.8 | 0.00 | 0.31 | 0.00 | 85 | 1045.4 |
| 20260506014957 | 50 | 289 | 0.9 | 7.8 | 0.00 | 0.31 | 0.00 | 85 | 1045.4 |
| 20260506014912 | 50 | 290 | 0.9 | 7.8 | 0.00 | 0.31 | 0.00 | 85 | 1045.4 |
| 20260506014845 | 50 | 289 | 1.7 | 7.8 | 0.00 | 0.31 | 0.00 | 85 | 1045.4 |
| 20260506014838 | 50 | 289 | 1.7 | 7.8 | 0.00 | 0.31 | 0.00 | 85 | 1045.4 |
| 20260506014512 | 50 | 289 | 1.7 | 7.8 | 0.00 | 0.31 | 0.00 | 85 | 1045.4 |
| 20260506014457 | 50 | 289 | 1.7 | 7.8 | 0.00 | 0.31 | 0.00 | 85 | 1045.4 |
| 20260506014413 | 50 | 289 | 2.6 | 7.8 | 0.00 | 0.31 | 0.00 | 85 | 1045.4 |
| 20260506014308 | 50 | 289 | 2.6 | 8.7 | 0.00 | 0.31 | 0.00 | 85 | 1045.4 |
| 20260506014209 | 50 | 292 | 2.6 | 8.7 | 0.00 | 0.31 | 0.00 | 85 | 1045.4 |
| 20260506014110 | 50 | 292 | 2.6 | 8.7 | 0.00 | 0.31 | 0.00 | 85 | 1045.2 |
| 20260506014009 | 50 | 292 | 2.6 | 8.7 | 0.00 | 0.31 | 0.00 | 85 | 1045.2 |
| 20260506013956 | 50 | 292 | 2.6 | 8.7 | 0.00 | 0.31 | 0.00 | 85 | 1045.2 |
| 20260506013908 | 50 | 292 | 3.5 | 8.7 | 0.00 | 0.31 | 0.00 | 86 | 1045.2 |
| 20260506013807 | 50 | 292 | 3.5 | 8.7 | 0.00 | 0.31 | 0.00 | 86 | 1045.2 |
| 20260506013708 | 50 | 292 | 3.5 | 8.7 | 0.00 | 0.31 | 0.00 | 86 | 1045.2 |
| 20260506013607 | 50 | 292 | 3.5 | 8.7 | 0.00 | 0.31 | 0.00 | 86 | 1045.2 |
| 20260506013508 | 50 | 290 | 3.5 | 8.7 | 0.00 | 0.31 | 0.00 | 87 | 1045.2 |
| 20260506013457 | 50 | 291 | 3.5 | 8.7 | 0.00 | 0.31 | 0.00 | 87 | 1045.2 |
| 20260506013408 | 50 | 300 | 3.5 | 8.7 | 0.00 | 0.31 | 0.00 | 87 | 1045.2 |
| 20260506013308 | 50 | 317 | 3.5 | 7.0 | 0.00 | 0.31 | 0.00 | 87 | 1045.1 |
| 20260506013208 | 50 | 318 | 2.6 | 7.0 | 0.00 | 0.31 | 0.00 | 88 | 1045.2 |
| 20260506013150 | 49 | 321 | 2.6 | 7.0 | 0.00 | 0.31 | 0.00 | 88 | 1045.2 |
| 20260506013141 | 49 | 320 | 2.6 | 7.0 | 0.00 | 0.31 | 0.00 | 89 | 1045.2 |
| 20260506013130 | 49 | 321 | 2.6 | 7.0 | 0.00 | 0.31 | 0.00 | 89 | 1045.2 |
| 20260506012808 | 49 | 323 | 2.6 | 7.0 | 0.00 | 0.31 | 0.00 | 89 | 1045.2 |
| 20260506012709 | 49 | 304 | 2.6 | 6.1 | 0.00 | 0.31 | 0.00 | 89 | 1045.1 |
| 20260506012608 | 49 | 305 | 1.7 | 6.1 | 0.00 | 0.31 | 0.00 | 90 | 1045.2 |
| 20260506012508 | 49 | 295 | 1.7 | 6.1 | 0.00 | 0.31 | 0.00 | 90 | 1045.2 |
| 20260506012458 | 49 | 295 | 1.7 | 6.1 | 0.00 | 0.31 | 0.00 | 90 | 1045.2 |
| 20260506012407 | 49 | 295 | 1.7 | 4.3 | 0.00 | 0.31 | 0.00 | 90 | 1045.2 |
| 20260506012308 | 49 | 295 | 0.9 | 4.3 | 0.00 | 0.31 | 0.00 | 90 | 1045.1 |
| 20260506012241 | 49 | 295 | 0.9 | 4.3 | 0.00 | 0.31 | 0.00 | 90 | 1045.1 |
| 20260506012233 | 49 | 295 | 0.9 | 4.3 | 0.00 | 0.31 | 0.00 | 90 | 1045.2 |
| 20260506011957 | 49 | 293 | 0.9 | 4.3 | 0.00 | 0.31 | 0.00 | 90 | 1045.2 |
| 20260506011908 | 49 | 295 | 0.9 | 2.6 | 0.00 | 0.31 | 0.00 | 90 | 1045.1 |
| 20260506011809 | 49 | 295 | 0.9 | 1.7 | 0.00 | 0.31 | 0.00 | 90 | 1045.1 |
| 20260506011707 | 49 | 295 | 0.9 | 1.7 | 0.00 | 0.31 | 0.00 | 90 | 1045.2 |
| 20260506011608 | 49 | 295 | 0.9 | 1.7 | 0.00 | 0.31 | 0.00 | 90 | 1045.2 |
| 20260506011508 | 49 | 295 | 0.9 | 1.7 | 0.00 | 0.31 | 0.00 | 90 | 1045.1 |
| 20260506011456 | 49 | 295 | 0.9 | 1.7 | 0.00 | 0.31 | 0.00 | 90 | 1045.1 |
| 20260506011408 | 49 | 295 | 0.9 | 1.7 | 0.00 | 0.31 | 0.00 | 90 | 1045.2 |
| 20260506011307 | 49 | 359 | 0.9 | 1.7 | 0.00 | 0.31 | 0.00 | 90 | 1045.2 |
| 20260506011208 | 49 | 295 | 0.9 | 1.7 | 0.00 | 0.31 | 0.00 | 90 | 1045.2 |
| 20260506011149 | 49 | 295 | 0.9 | 1.7 | 0.00 | 0.31 | 0.00 | 90 | 1045.2 |
| 20260506011139 | 49 | 295 | 0.9 | 2.6 | 0.00 | 0.31 | 0.00 | 90 | 1045.4 |
| 20260506011130 | 49 | 295 | 0.9 | 2.6 | 0.00 | 0.31 | 0.00 | 90 | 1045.4 |
| 20260506010804 | 49 | 295 | 0.9 | 2.6 | 0.00 | 0.31 | 0.00 | 90 | 1045.4 |
| 20260506010704 | 49 | 295 | 0.9 | 2.6 | 0.00 | 0.31 | 0.00 | 90 | 1045.4 |
| 20260506010606 | 49 | 295 | 0.9 | 2.6 | 0.00 | 0.31 | 0.00 | 91 | 1045.4 |
| 20260506010507 | 49 | 295 | 0.9 | 3.5 | 0.00 | 0.31 | 0.00 | 91 | 1045.4 |
| 20260506010456 | 49 | 295 | 0.9 | 3.5 | 0.00 | 0.31 | 0.00 | 91 | 1045.4 |
| 20260506010405 | 49 | 295 | 0.9 | 7.8 | 0.00 | 0.31 | 0.00 | 91 | 1045.4 |
| 20260506010304 | 49 | 294 | 0.9 | 7.8 | 0.00 | 0.31 | 0.00 | 91 | 1045.4 |
| 20260506010227 | 49 | 294 | 0.9 | 7.8 | 0.00 | 0.31 | 0.00 | 91 | 1045.4 |
| 20260506010219 | 49 | 295 | 1.7 | 7.8 | 0.00 | 0.31 | 0.00 | 92 | 1045.4 |
| 20260506010206 | 49 | 295 | 1.7 | 7.8 | 0.00 | 0.31 | 0.00 | 92 | 1045.4 |
| 20260506010157 | 49 | 294 | 1.7 | 7.8 | 0.00 | 0.31 | 0.00 | 92 | 1045.4 |
| 20260506010145 | 49 | 295 | 1.7 | 7.8 | 0.00 | 0.31 | 0.00 | 92 | 1045.4 |
| 20260506005605 | 49 | 294 | 2.6 | 7.8 | 0.00 | 0.31 | 0.00 | 93 | 1045.5 |
| 20260506005506 | 49 | 299 | 1.7 | 7.8 | 0.00 | 0.31 | 0.00 | 93 | 1045.4 |
| 20260506005457 | 49 | 300 | 1.7 | 7.8 | 0.00 | 0.31 | 0.00 | 93 | 1045.4 |
| 20260506005405 | 49 | 273 | 1.7 | 7.8 | 0.00 | 0.31 | 0.00 | 93 | 1045.4 |
| 20260506005336 | 49 | 272 | 1.7 | 7.8 | 0.00 | 0.31 | 0.00 | 93 | 1045.5 |
| 20260506005329 | 49 | 272 | 1.7 | 7.8 | 0.00 | 0.31 | 0.00 | 93 | 1045.4 |
| 20260506005005 | 48 | 273 | 2.6 | 7.8 | 0.00 | 0.31 | 0.00 | 93 | 1045.4 |
| 20260506004956 | 48 | 272 | 2.6 | 7.8 | 0.00 | 0.31 | 0.00 | 93 | 1045.4 |
| 20260506004923 | 48 | 272 | 2.6 | 7.8 | 0.00 | 0.31 | 0.00 | 93 | 1045.4 |
| 20260506004915 | 48 | 306 | 2.6 | 7.0 | 0.00 | 0.31 | 0.00 | 93 | 1045.4 |
| 20260506004857 | 48 | 258 | 2.6 | 7.8 | 0.00 | 0.31 | 0.00 | 93 | 1045.5 |
| 20260506004620 | 48 | 258 | 2.6 | 7.8 | 0.00 | 0.31 | 0.00 | 93 | 1045.5 |
| 20260506004253 | 47 | 258 | 1.7 | 7.8 | 0.00 | 0.31 | 0.00 | 93 | 1045.5 |
| 20260506004153 | 47 | 258 | 1.7 | 7.8 | 0.00 | 0.31 | 0.00 | 93 | 1045.5 |
| 20260506004049 | 47 | 294 | 1.7 | 7.8 | 0.00 | 0.31 | 0.00 | 93 | 1045.5 |
| 20260506004001 | 47 | 294 | 0.9 | 7.8 | 0.00 | 0.31 | 0.00 | 93 | 1045.5 |
| 20260506003948 | 47 | 293 | 0.9 | 7.8 | 0.00 | 0.31 | 0.00 | 93 | 1045.5 |
| 20260506003848 | 47 | 290 | 0.9 | 7.8 | 0.00 | 0.31 | 0.00 | 93 | 1045.5 |
| 20260506003748 | 47 | 287 | 0.9 | 7.8 | 0.00 | 0.31 | 0.00 | 93 | 1045.5 |
| 20260506003647 | 47 | 276 | 0.9 | 2.6 | 0.00 | 0.31 | 0.00 | 93 | 1045.5 |
| 20260506003623 | 47 | 275 | 0.9 | 2.6 | 0.00 | 0.31 | 0.00 | 93 | 1045.5 |
| 20260506003612 | 47 | 275 | 0.9 | 2.6 | 0.00 | 0.31 | 0.00 | 93 | 1045.5 |
| 20260506003605 | 47 | 276 | 0.9 | 2.6 | 0.00 | 0.31 | 0.00 | 93 | 1045.4 |
| 20260506003242 | 47 | 275 | 0.9 | 2.6 | 0.00 | 0.31 | 0.00 | 93 | 1045.5 |
| 20260506003146 | 47 | 276 | 0.9 | 2.6 | 0.00 | 0.31 | 0.00 | 93 | 1045.5 |
| 20260506003136 | 47 | 275 | 0.9 | 3.5 | 0.00 | 0.31 | 0.00 | 93 | 1045.5 |
| 20260506003120 | 47 | 275 | 0.9 | 3.5 | 0.00 | 0.31 | 0.00 | 93 | 1045.5 |
| 20260506003106 | 47 | 275 | 0.9 | 3.5 | 0.00 | 0.31 | 0.00 | 93 | 1045.5 |
| 20260506003100 | 47 | 276 | 0.9 | 3.5 | 0.00 | 0.31 | 0.00 | 93 | 1045.5 |
| 20260506002831 | 47 | 275 | 0.9 | 3.5 | 0.00 | 0.31 | 0.00 | 93 | 1045.6 |
| 20260506002820 | 47 | 276 | 0.9 | 3.5 | 0.00 | 0.31 | 0.00 | 93 | 1045.6 |
| 20260506002553 | 47 | 275 | 0.0 | 3.5 | 0.00 | 0.31 | 0.00 | 93 | 1045.6 |
| 20260506002531 | 47 | 275 | 0.0 | 3.5 | 0.00 | 0.31 | 0.00 | 93 | 1045.6 |
| 20260506002301 | 47 | 276 | 0.0 | 0.9 | 0.00 | 0.31 | 0.00 | 92 | 1045.6 |
| 20260506002253 | 47 | 276 | 0.0 | 1.7 | 0.00 | 0.31 | 0.00 | 92 | 1045.6 |
| 20260506002023 | 47 | 275 | 0.9 | 1.7 | 0.00 | 0.31 | 0.00 | 92 | 1045.7 |
| 20260506002008 | 47 | 275 | 0.9 | 2.6 | 0.00 | 0.31 | 0.00 | 92 | 1045.6 |
| 20260506002000 | 47 | 276 | 0.9 | 2.6 | 0.00 | 0.31 | 0.00 | 93 | 1045.7 |
| 20260506001952 | 47 | 277 | 0.9 | 2.6 | 0.00 | 0.31 | 0.00 | 93 | 1045.7 |
| 20260506001728 | 47 | 275 | 0.9 | 2.6 | 0.00 | 0.31 | 0.00 | 93 | 1045.7 |
| 20260506001719 | 47 | 276 | 0.9 | 2.6 | 0.00 | 0.31 | 0.00 | 93 | 1045.7 |
| 20260506001706 | 47 | 276 | 0.9 | 2.6 | 0.00 | 0.31 | 0.00 | 93 | 1045.7 |
| 20260506001440 | 47 | 276 | 0.9 | 2.6 | 0.00 | 0.31 | 0.00 | 93 | 1045.8 |
| 20260506001431 | 47 | 276 | 0.9 | 2.6 | 0.00 | 0.31 | 0.00 | 93 | 1045.8 |
| 20260506001204 | 47 | 276 | 0.9 | 2.6 | 0.00 | 0.31 | 0.00 | 93 | 1045.8 |
| 20260506001153 | 47 | 276 | 0.9 | 1.7 | 0.00 | 0.31 | 0.00 | 93 | 1045.8 |
| 20260506000924 | 47 | 276 | 0.0 | 1.7 | 0.00 | 0.31 | 0.00 | 92 | 1045.8 |
| 20260506000913 | 47 | 275 | 0.9 | 1.7 | 0.00 | 0.31 | 0.00 | 92 | 1045.9 |
| 20260506000652 | 47 | 276 | 0.0 | 1.7 | 0.00 | 0.31 | 0.00 | 92 | 1045.9 |
| 20260506000204 | 48 | 275 | 0.9 | 2.6 | 0.00 | 0.31 | 0.00 | 92 | 1045.9 |
| 20260505235916 | 48 | 275 | 0.9 | 2.6 | 0.00 | 0.31 | 0.00 | 92 | 1045.9 |
| 20260505235833 | 48 | 276 | 0.9 | 2.6 | 0.00 | 0.31 | 0.00 | 92 | 1046.0 |
| 20260505235827 | 48 | 276 | 0.9 | 2.6 | 0.00 | 0.31 | 0.00 | 92 | 1046.0 |
| 20260505235508 | 48 | 276 | 0.9 | 2.6 | 0.00 | 0.31 | 0.00 | 93 | 1046.0 |
| 20260505235450 | 48 | 276 | 0.9 | 2.6 | 0.00 | 0.31 | 0.00 | 93 | 1046.0 |
| 20260505235443 | 48 | 275 | 0.9 | 2.6 | 0.00 | 0.31 | 0.00 | 93 | 1046.0 |
| 20260505235104 | 48 | 276 | 0.9 | 2.6 | 0.00 | 0.31 | 0.00 | 93 | 1046.0 |
| 20260505235003 | 48 | 276 | 0.9 | 2.6 | 0.00 | 0.31 | 0.00 | 93 | 1046.0 |
| 20260505234941 | 48 | 276 | 0.9 | 2.6 | 0.00 | 0.31 | 0.00 | 93 | 1046.0 |
| 20260505234903 | 48 | 275 | 0.9 | 2.6 | 0.00 | 0.31 | 0.00 | 93 | 1046.0 |
| 20260505234803 | 48 | 276 | 0.9 | 2.6 | 0.00 | 0.31 | 0.00 | 93 | 1046.0 |
| 20260505234704 | 48 | 275 | 1.7 | 2.6 | 0.00 | 0.31 | 0.00 | 93 | 1046.0 |
| 20260505234604 | 48 | 276 | 1.7 | 2.6 | 0.00 | 0.31 | 0.00 | 93 | 1046.0 |
| 20260505234503 | 48 | 276 | 1.7 | 2.6 | 0.00 | 0.31 | 0.00 | 93 | 1046.0 |
| 20260505234440 | 48 | 275 | 1.7 | 2.6 | 0.00 | 0.31 | 0.00 | 93 | 1046.1 |
| 20260505234404 | 48 | 275 | 1.7 | 2.6 | 0.00 | 0.31 | 0.00 | 92 | 1046.1 |
| 20260505234303 | 48 | 276 | 1.7 | 2.6 | 0.00 | 0.31 | 0.00 | 92 | 1046.0 |
| 20260505234219 | 48 | 276 | 1.7 | 2.6 | 0.00 | 0.31 | 0.00 | 92 | 1046.0 |
| 20260505234211 | 48 | 276 | 1.7 | 2.6 | 0.00 | 0.31 | 0.00 | 92 | 1046.1 |
| 20260505234159 | 48 | 275 | 1.7 | 2.6 | 0.00 | 0.31 | 0.00 | 92 | 1046.1 |
| 20260505233903 | 48 | 276 | 1.7 | 2.6 | 0.00 | 0.31 | 0.00 | 92 | 1046.1 |
| 20260505233803 | 48 | 275 | 1.7 | 2.6 | 0.00 | 0.31 | 0.00 | 92 | 1046.1 |
| 20260505233705 | 48 | 276 | 0.9 | 2.6 | 0.00 | 0.31 | 0.00 | 92 | 1046.1 |
| 20260505233604 | 48 | 275 | 0.9 | 2.6 | 0.00 | 0.31 | 0.00 | 92 | 1046.1 |
| 20260505233504 | 48 | 275 | 0.9 | 2.6 | 0.00 | 0.31 | 0.00 | 92 | 1046.1 |
| 20260505233436 | 48 | 276 | 0.9 | 2.6 | 0.00 | 0.31 | 0.00 | 92 | 1046.1 |
| 20260505233404 | 48 | 276 | 0.9 | 2.6 | 0.00 | 0.31 | 0.00 | 92 | 1046.1 |
| 20260505233304 | 48 | 275 | 0.9 | 2.6 | 0.00 | 0.31 | 0.00 | 93 | 1046.1 |
| 20260505233204 | 49 | 275 | 0.9 | 2.6 | 0.00 | 0.31 | 0.00 | 93 | 1046.1 |
| 20260505233109 | 49 | 276 | 0.9 | 1.7 | 0.00 | 0.31 | 0.00 | 93 | 1046.1 |
| 20260505233101 | 49 | 276 | 0.9 | 2.6 | 0.00 | 0.31 | 0.00 | 93 | 1046.1 |
| 20260505233045 | 49 | 276 | 0.9 | 2.6 | 0.00 | 0.31 | 0.00 | 93 | 1046.1 |
| 20260505233029 | 49 | 276 | 0.0 | 2.6 | 0.00 | 0.31 | 0.00 | 93 | 1046.0 |
| 20260505233020 | 49 | 276 | 0.0 | 2.6 | 0.00 | 0.31 | 0.00 | 93 | 1046.0 |
| 20260505232526 | 49 | 276 | 0.9 | 2.6 | 0.00 | 0.31 | 0.00 | 93 | 1046.0 |
| 20260505232518 | 49 | 276 | 0.9 | 2.6 | 0.00 | 0.31 | 0.00 | 93 | 1046.0 |
| 20260505232505 | 49 | 276 | 0.9 | 2.6 | 0.00 | 0.31 | 0.00 | 93 | 1046.0 |
| 20260505232455 | 49 | 276 | 0.9 | 3.5 | 0.00 | 0.31 | 0.00 | 92 | 1046.1 |
| 20260505232447 | 49 | 276 | 0.9 | 3.5 | 0.00 | 0.31 | 0.00 | 92 | 1046.0 |
| 20260505232435 | 49 | 276 | 0.9 | 3.5 | 0.00 | 0.31 | 0.00 | 92 | 1046.0 |
| 20260505232155 | 49 | 275 | 0.9 | 3.5 | 0.00 | 0.31 | 0.00 | 92 | 1046.0 |
| 20260505232146 | 49 | 276 | 0.9 | 3.5 | 0.00 | 0.31 | 0.00 | 92 | 1046.0 |
| 20260505231920 | 49 | 275 | 0.9 | 3.5 | 0.00 | 0.31 | 0.00 | 92 | 1045.9 |
| 20260505231906 | 49 | 275 | 0.9 | 3.5 | 0.00 | 0.31 | 0.00 | 92 | 1045.9 |
| 20260505231852 | 49 | 276 | 0.9 | 3.5 | 0.00 | 0.31 | 0.00 | 92 | 1046.0 |
| 20260505231052 | 49 | 276 | 0.9 | 1.7 | 0.00 | 0.31 | 0.00 | 93 | 1045.9 |
| 20260505230952 | 49 | 275 | 0.9 | 1.7 | 0.00 | 0.31 | 0.00 | 92 | 1045.9 |
| 20260505230933 | 49 | 276 | 0.9 | 1.7 | 0.00 | 0.31 | 0.00 | 92 | 1045.9 |
| 20260505230852 | 49 | 276 | 0.9 | 1.7 | 0.00 | 0.31 | 0.00 | 92 | 1045.9 |
| 20260505230752 | 49 | 275 | 0.9 | 1.7 | 0.00 | 0.31 | 0.00 | 92 | 1045.9 |
| 20260505230653 | 49 | 276 | 0.9 | 1.7 | 0.00 | 0.31 | 0.00 | 93 | 1045.9 |
| 20260505230550 | 49 | 275 | 0.9 | 1.7 | 0.00 | 0.31 | 0.00 | 93 | 1046.0 |
| 20260505230449 | 49 | 275 | 0.9 | 1.7 | 0.00 | 0.31 | 0.00 | 93 | 1045.9 |
| 20260505230432 | 49 | 276 | 0.9 | 1.7 | 0.00 | 0.31 | 0.00 | 93 | 1045.9 |
| 20260505230348 | 49 | 276 | 0.9 | 1.7 | 0.00 | 0.31 | 0.00 | 93 | 1045.9 |
| 20260505230246 | 49 | 275 | 0.9 | 1.7 | 0.00 | 0.31 | 0.00 | 93 | 1045.9 |
| 20260505230146 | 49 | 275 | 0.9 | 2.6 | 0.00 | 0.31 | 0.00 | 93 | 1045.9 |
| 20260505230050 | 49 | 276 | 0.9 | 2.6 | 0.00 | 0.31 | 0.00 | 93 | 1045.9 |
| 20260505230040 | 49 | 276 | 0.9 | 2.6 | 0.00 | 0.31 | 0.00 | 93 | 1045.9 |
| 20260505230031 | 49 | 275 | 0.9 | 2.6 | 0.00 | 0.31 | 0.00 | 93 | 1045.9 |
| 20260505230023 | 49 | 276 | 0.9 | 2.6 | 0.00 | 0.31 | 0.00 | 93 | 1045.9 |
| 20260505230012 | 49 | 275 | 1.7 | 2.6 | 0.00 | 0.31 | 0.00 | 93 | 1045.9 |
| 20260505230004 | 49 | 275 | 1.7 | 3.5 | 0.00 | 0.31 | 0.00 | 93 | 1045.9 |
| 20260505225947 | 49 | 276 | 1.7 | 3.5 | 0.00 | 0.31 | 0.00 | 93 | 1045.9 |
| 20260505225722 | 49 | 276 | 2.6 | 5.2 | 0.00 | 0.31 | 0.00 | 93 | 1045.9 |
| 20260505225225 | 49 | 274 | 2.6 | 5.2 | 0.00 | 0.31 | 0.00 | 93 | 1045.8 |
| 20260505225217 | 49 | 275 | 2.6 | 5.2 | 0.00 | 0.31 | 0.00 | 93 | 1045.9 |
| 20260505224932 | 49 | 276 | 2.6 | 5.2 | 0.00 | 0.31 | 0.00 | 93 | 1045.9 |
| 20260505224905 | 49 | 275 | 2.6 | 5.2 | 0.00 | 0.31 | 0.00 | 93 | 1045.9 |
| 20260505224856 | 49 | 276 | 1.7 | 5.2 | 0.00 | 0.31 | 0.00 | 93 | 1046.0 |
| 20260505224534 | 49 | 275 | 1.7 | 5.2 | 0.00 | 0.31 | 0.00 | 93 | 1045.9 |
| 20260505224441 | 49 | 275 | 0.9 | 5.2 | 0.00 | 0.31 | 0.00 | 93 | 1045.9 |
| 20260505224432 | 49 | 276 | 0.9 | 5.2 | 0.00 | 0.31 | 0.00 | 93 | 1045.9 |
| 20260505224334 | 49 | 275 | 0.9 | 3.5 | 0.00 | 0.31 | 0.00 | 93 | 1045.9 |
| 20260505224233 | 49 | 276 | 0.9 | 2.6 | 0.00 | 0.31 | 0.00 | 93 | 1045.9 |
| 20260505224140 | 49 | 275 | 0.9 | 2.6 | 0.00 | 0.31 | 0.00 | 93 | 1045.9 |
| 20260505224132 | 49 | 275 | 0.9 | 2.6 | 0.00 | 0.31 | 0.00 | 93 | 1045.8 |
| 20260505224117 | 49 | 276 | 0.9 | 2.6 | 0.00 | 0.31 | 0.00 | 93 | 1045.8 |
| 20260505224103 | 49 | 276 | 0.9 | 2.6 | 0.00 | 0.31 | 0.00 | 93 | 1045.8 |
| 20260505224053 | 49 | 276 | 0.9 | 2.6 | 0.00 | 0.31 | 0.00 | 93 | 1045.8 |
| 20260505223822 | 49 | 276 | 1.7 | 3.5 | 0.00 | 0.31 | 0.00 | 93 | 1045.8 |
| 20260505223558 | 49 | 275 | 1.7 | 3.5 | 0.00 | 0.31 | 0.00 | 93 | 1045.8 |
| 20260505223232 | 49 | 275 | 1.7 | 3.5 | 0.00 | 0.31 | 0.00 | 93 | 1045.8 |
| 20260505223132 | 49 | 276 | 1.7 | 3.5 | 0.00 | 0.31 | 0.00 | 93 | 1045.8 |
| 20260505223115 | 49 | 276 | 1.7 | 3.5 | 0.00 | 0.31 | 0.00 | 93 | 1045.8 |
| 20260505223059 | 49 | 275 | 1.7 | 3.5 | 0.00 | 0.31 | 0.00 | 92 | 1045.8 |
| 20260505222731 | 49 | 276 | 0.9 | 3.5 | 0.00 | 0.31 | 0.00 | 92 | 1045.8 |
| 20260505222631 | 49 | 275 | 0.9 | 3.5 | 0.00 | 0.31 | 0.00 | 92 | 1045.8 |
| 20260505222531 | 49 | 278 | 0.9 | 3.5 | 0.00 | 0.31 | 0.00 | 92 | 1045.8 |
| 20260505222436 | 49 | 276 | 0.9 | 2.6 | 0.00 | 0.31 | 0.00 | 92 | 1045.8 |
| 20260505222331 | 49 | 276 | 0.9 | 2.6 | 0.00 | 0.31 | 0.00 | 92 | 1045.9 |
| 20260505222232 | 49 | 275 | 0.9 | 2.6 | 0.00 | 0.31 | 0.00 | 92 | 1045.9 |
| 20260505222132 | 49 | 276 | 0.9 | 2.6 | 0.00 | 0.31 | 0.00 | 92 | 1045.9 |
| 20260505222031 | 49 | 276 | 0.0 | 2.6 | 0.00 | 0.31 | 0.00 | 92 | 1046.0 |
| 20260505221933 | 49 | 276 | 0.9 | 1.7 | 0.00 | 0.31 | 0.00 | 92 | 1046.0 |
| 20260505221833 | 49 | 276 | 0.0 | 1.7 | 0.00 | 0.31 | 0.00 | 92 | 1046.0 |
| 20260505221734 | 49 | 275 | 0.0 | 1.7 | 0.00 | 0.31 | 0.00 | 92 | 1046.0 |
| 20260505221630 | 49 | 276 | 0.0 | 1.7 | 0.00 | 0.31 | 0.00 | 92 | 1046.1 |
| 20260505221531 | 49 | 276 | 0.0 | 1.7 | 0.00 | 0.31 | 0.00 | 92 | 1046.1 |
| 20260505221432 | 49 | 275 | 0.0 | 1.7 | 0.00 | 0.31 | 0.00 | 92 | 1046.1 |
| 20260505221331 | 49 | 275 | 0.0 | 1.7 | 0.00 | 0.31 | 0.00 | 92 | 1046.1 |
| 20260505221230 | 49 | 275 | 0.0 | 1.7 | 0.00 | 0.31 | 0.00 | 92 | 1046.1 |
| 20260505221133 | 49 | 276 | 0.0 | 1.7 | 0.00 | 0.31 | 0.00 | 92 | 1046.2 |
| 20260505221031 | 49 | 276 | 0.0 | 1.7 | 0.00 | 0.31 | 0.00 | 92 | 1046.2 |
| 20260505220933 | 50 | 275 | 0.0 | 2.6 | 0.00 | 0.31 | 0.00 | 92 | 1046.2 |
| 20260505220846 | 50 | 275 | 0.9 | 2.6 | 0.00 | 0.31 | 0.00 | 92 | 1046.3 |
| 20260505220839 | 50 | 276 | 0.9 | 2.6 | 0.00 | 0.31 | 0.00 | 92 | 1046.3 |
| 20260505220826 | 50 | 275 | 0.9 | 2.6 | 0.00 | 0.31 | 0.00 | 92 | 1046.4 |
| 20260505220551 | 50 | 276 | 0.9 | 2.6 | 0.00 | 0.31 | 0.00 | 92 | 1046.4 |
| 20260505220226 | 50 | 276 | 1.7 | 2.6 | 0.00 | 0.31 | 0.00 | 92 | 1046.4 |
| 20260505220212 | 50 | 275 | 1.7 | 2.6 | 0.00 | 0.31 | 0.00 | 92 | 1046.5 |
| 20260505220153 | 50 | 275 | 1.7 | 2.6 | 0.00 | 0.31 | 0.00 | 92 | 1046.5 |
| 20260505215921 | 50 | 276 | 1.7 | 2.6 | 0.00 | 0.31 | 0.31 | 92 | 1046.6 |
| 20260505215821 | 50 | 276 | 1.7 | 3.5 | 0.00 | 0.31 | 0.31 | 92 | 1046.6 |
| 20260505215720 | 50 | 276 | 1.7 | 3.5 | 0.00 | 0.31 | 0.31 | 92 | 1046.6 |
| 20260505215617 | 50 | 276 | 1.7 | 3.5 | 0.00 | 0.31 | 0.31 | 92 | 1046.6 |
| 20260505215512 | 50 | 275 | 2.6 | 3.5 | 0.00 | 0.31 | 0.31 | 92 | 1046.6 |
| 20260505215411 | 50 | 275 | 2.6 | 3.5 | 0.00 | 0.31 | 0.31 | 92 | 1046.6 |
| 20260505215312 | 50 | 276 | 2.6 | 3.5 | 0.00 | 0.31 | 0.31 | 92 | 1046.6 |
| 20260505215211 | 50 | 276 | 2.6 | 3.5 | 0.00 | 0.31 | 0.31 | 92 | 1046.6 |
| 20260505215123 | 50 | 276 | 2.6 | 5.2 | 0.00 | 0.31 | 0.31 | 92 | 1046.6 |
| 20260505215057 | 50 | 275 | 2.6 | 5.2 | 0.00 | 0.31 | 0.31 | 92 | 1046.6 |
| 20260505215048 | 50 | 276 | 2.6 | 5.2 | 0.00 | 0.31 | 0.31 | 92 | 1046.6 |
| 20260505215040 | 50 | 275 | 2.6 | 5.2 | 0.00 | 0.31 | 0.31 | 92 | 1046.6 |
| 20260505214710 | 50 | 276 | 1.7 | 5.2 | 0.00 | 0.31 | 0.31 | 92 | 1046.6 |
| 20260505214611 | 50 | 276 | 1.7 | 5.2 | 0.00 | 0.31 | 0.31 | 92 | 1046.6 |
| 20260505214511 | 50 | 276 | 1.7 | 5.2 | 0.00 | 0.31 | 0.31 | 92 | 1046.5 |
| 20260505214425 | 50 | 275 | 1.7 | 5.2 | 0.00 | 0.31 | 0.31 | 92 | 1046.6 |
| 20260505214411 | 50 | 276 | 1.7 | 5.2 | 0.00 | 0.31 | 0.31 | 92 | 1046.6 |
| 20260505214311 | 50 | 275 | 1.7 | 5.2 | 0.00 | 0.31 | 0.31 | 92 | 1046.6 |
| 20260505214210 | 50 | 276 | 1.7 | 5.2 | 0.00 | 0.31 | 0.31 | 92 | 1046.6 |
| 20260505214109 | 50 | 276 | 1.7 | 3.5 | 0.00 | 0.31 | 0.31 | 92 | 1046.6 |
| 20260505214009 | 50 | 276 | 1.7 | 3.5 | 0.00 | 0.31 | 0.31 | 92 | 1046.6 |
| 20260505213909 | 50 | 276 | 1.7 | 3.5 | 0.00 | 0.31 | 0.31 | 92 | 1046.5 |
| 20260505213803 | 50 | 275 | 1.7 | 3.5 | 0.00 | 0.31 | 0.31 | 92 | 1046.5 |
| 20260505213703 | 50 | 276 | 1.7 | 3.5 | 0.00 | 0.31 | 0.31 | 92 | 1046.6 |
| 20260505213604 | 50 | 275 | 1.7 | 3.5 | 0.00 | 0.31 | 0.31 | 92 | 1046.6 |
| 20260505213505 | 51 | 275 | 1.7 | 3.5 | 0.00 | 0.31 | 0.31 | 92 | 1046.6 |
| 20260505213435 | 51 | 276 | 1.7 | 3.5 | 0.00 | 0.31 | 0.31 | 92 | 1046.6 |
| 20260505213423 | 51 | 276 | 2.6 | 3.5 | 0.00 | 0.31 | 0.31 | 92 | 1046.5 |
| 20260505213102 | 51 | 276 | 2.6 | 3.5 | 0.00 | 0.31 | 0.31 | 92 | 1046.6 |
| 20260505213000 | 51 | 276 | 2.6 | 3.5 | 0.00 | 0.31 | 0.31 | 92 | 1046.6 |
| 20260505212923 | 51 | 275 | 1.7 | 3.5 | 0.00 | 0.31 | 0.31 | 92 | 1046.6 |
| 20260505212858 | 51 | 276 | 1.7 | 3.5 | 0.00 | 0.31 | 0.31 | 92 | 1046.6 |
| 20260505212754 | 51 | 275 | 1.7 | 3.5 | 0.00 | 0.31 | 0.31 | 92 | 1046.5 |
| 20260505212652 | 51 | 275 | 1.7 | 3.5 | 0.00 | 0.31 | 0.31 | 92 | 1046.5 |
| 20260505212550 | 51 | 276 | 1.7 | 3.5 | 0.00 | 0.31 | 0.31 | 92 | 1046.6 |
| 20260505212451 | 51 | 276 | 1.7 | 3.5 | 0.00 | 0.31 | 0.31 | 92 | 1046.6 |
| 20260505212422 | 51 | 275 | 1.7 | 3.5 | 0.00 | 0.31 | 0.31 | 92 | 1046.6 |
| 20260505212350 | 51 | 275 | 1.7 | 3.5 | 0.00 | 0.31 | 0.31 | 92 | 1046.6 |
| 20260505212242 | 51 | 275 | 1.7 | 3.5 | 0.00 | 0.31 | 0.31 | 92 | 1046.6 |
| 20260505212145 | 51 | 276 | 0.9 | 3.5 | 0.00 | 0.31 | 0.31 | 92 | 1046.6 |
| 20260505212047 | 51 | 276 | 0.9 | 2.6 | 0.00 | 0.31 | 0.31 | 92 | 1046.6 |
| 20260505211923 | 51 | 276 | 0.9 | 2.6 | 0.00 | 0.31 | 0.31 | 92 | 1046.6 |
| 20260505211843 | 51 | 275 | 0.9 | 2.6 | 0.00 | 0.31 | 0.31 | 92 | 1046.6 |
| 20260505211743 | 51 | 274 | 0.9 | 2.6 | 0.00 | 0.31 | 0.31 | 92 | 1046.6 |
| 20260505211641 | 51 | 275 | 1.7 | 2.6 | 0.00 | 0.31 | 0.31 | 92 | 1046.7 |
| 20260505211538 | 51 | 275 | 0.9 | 2.6 | 0.00 | 0.31 | 0.31 | 92 | 1046.7 |
| 20260505211440 | 51 | 276 | 0.9 | 2.6 | 0.00 | 0.31 | 0.31 | 92 | 1046.7 |
| 20260505211430 | 51 | 276 | 0.9 | 2.6 | 0.00 | 0.31 | 0.31 | 92 | 1046.7 |
| 20260505211424 | 51 | 275 | 0.9 | 2.6 | 0.00 | 0.31 | 0.31 | 92 | 1046.7 |
| 20260505211415 | 51 | 275 | 0.9 | 2.6 | 0.00 | 0.31 | 0.31 | 92 | 1046.7 |
| 20260505211404 | 51 | 276 | 0.9 | 2.6 | 0.00 | 0.31 | 0.31 | 92 | 1046.7 |
| 20260505210836 | 51 | 276 | 0.9 | 2.6 | 0.00 | 0.31 | 0.31 | 92 | 1046.7 |
| 20260505210732 | 51 | 276 | 0.9 | 2.6 | 0.00 | 0.31 | 0.31 | 92 | 1046.7 |
| 20260505210632 | 51 | 276 | 0.9 | 2.6 | 0.00 | 0.31 | 0.31 | 92 | 1046.7 |
| 20260505210531 | 51 | 275 | 0.9 | 2.6 | 0.00 | 0.31 | 0.31 | 92 | 1046.7 |
| 20260505210433 | 51 | 276 | 0.9 | 2.6 | 0.00 | 0.31 | 0.31 | 92 | 1046.7 |
| 20260505210422 | 51 | 275 | 0.9 | 2.6 | 0.00 | 0.31 | 0.31 | 92 | 1046.7 |
| 20260505210331 | 51 | 276 | 1.7 | 2.6 | 0.00 | 0.31 | 0.31 | 92 | 1046.6 |
| 20260505210309 | 51 | 275 | 1.7 | 3.5 | 0.00 | 0.31 | 0.31 | 92 | 1046.6 |
| 20260505210301 | 51 | 274 | 1.7 | 3.5 | 0.00 | 0.31 | 0.31 | 92 | 1046.6 |
| 20260505205932 | 51 | 276 | 1.7 | 3.5 | 0.00 | 0.31 | 0.31 | 92 | 1046.6 |
| 20260505205923 | 51 | 275 | 1.7 | 3.5 | 0.00 | 0.31 | 0.31 | 92 | 1046.6 |
| 20260505205830 | 51 | 275 | 1.7 | 3.5 | 0.00 | 0.31 | 0.31 | 92 | 1046.5 |
| 20260505205742 | 51 | 276 | 1.7 | 3.5 | 0.00 | 0.31 | 0.31 | 92 | 1046.5 |
| 20260505205731 | 51 | 276 | 2.6 | 3.5 | 0.00 | 0.31 | 0.31 | 92 | 1046.5 |
| 20260505205721 | 51 | 276 | 2.6 | 3.5 | 0.00 | 0.31 | 0.31 | 92 | 1046.5 |
| 20260505205451 | 51 | 276 | 2.6 | 3.5 | 0.00 | 0.31 | 0.31 | 92 | 1046.5 |
| 20260505205440 | 51 | 276 | 1.7 | 3.5 | 0.00 | 0.31 | 0.31 | 92 | 1046.5 |
| 20260505205118 | 51 | 275 | 1.7 | 3.5 | 0.00 | 0.31 | 0.31 | 92 | 1046.6 |
| 20260505205105 | 51 | 276 | 1.7 | 3.5 | 0.00 | 0.31 | 0.31 | 92 | 1046.6 |
| 20260505205049 | 51 | 276 | 1.7 | 3.5 | 0.01 | 0.31 | 0.31 | 92 | 1046.7 |
| 20260505204712 | 51 | 276 | 1.7 | 3.5 | 0.01 | 0.31 | 0.31 | 92 | 1046.6 |
| 20260505204627 | 52 | 275 | 1.7 | 3.5 | 0.01 | 0.31 | 0.31 | 92 | 1046.6 |
| 20260505204617 | 52 | 276 | 1.7 | 2.6 | 0.01 | 0.31 | 0.31 | 92 | 1046.6 |
| 20260505204607 | 52 | 276 | 1.7 | 3.5 | 0.01 | 0.31 | 0.31 | 92 | 1046.5 |
| 20260505204600 | 52 | 275 | 1.7 | 3.5 | 0.01 | 0.31 | 0.31 | 92 | 1046.5 |
| 20260505204544 | 52 | 275 | 1.7 | 3.5 | 0.01 | 0.31 | 0.31 | 92 | 1046.5 |
| 20260505204538 | 52 | 275 | 1.7 | 3.5 | 0.01 | 0.31 | 0.31 | 92 | 1046.5 |
| 20260505204305 | 52 | 276 | 1.7 | 3.5 | 0.01 | 0.31 | 0.31 | 92 | 1046.5 |
| 20260505204034 | 52 | 275 | 1.7 | 3.5 | 0.01 | 0.31 | 0.31 | 92 | 1046.4 |
| 20260505203704 | 52 | 275 | 1.7 | 3.5 | 0.01 | 0.31 | 0.31 | 92 | 1046.4 |
| 20260505203606 | 52 | 276 | 1.7 | 3.5 | 0.01 | 0.31 | 0.31 | 92 | 1046.4 |
| 20260505203504 | 52 | 275 | 1.7 | 3.5 | 0.01 | 0.31 | 0.31 | 92 | 1046.4 |
| 20260505203418 | 52 | 275 | 1.7 | 3.5 | 0.01 | 0.31 | 0.31 | 92 | 1046.4 |
| 20260505203406 | 52 | 276 | 1.7 | 3.5 | 0.01 | 0.31 | 0.31 | 92 | 1046.4 |
| 20260505203304 | 52 | 276 | 1.7 | 2.6 | 0.01 | 0.31 | 0.31 | 92 | 1046.4 |
| 20260505203203 | 52 | 276 | 1.7 | 2.6 | 0.01 | 0.31 | 0.31 | 92 | 1046.3 |
| 20260505203104 | 52 | 276 | 1.7 | 2.6 | 0.01 | 0.31 | 0.31 | 92 | 1046.4 |
| 20260505202937 | 52 | 275 | 1.7 | 2.6 | 0.01 | 0.31 | 0.31 | 92 | 1046.4 |
| 20260505202930 | 52 | 276 | 1.7 | 2.6 | 0.01 | 0.31 | 0.31 | 92 | 1046.4 |
| 20260505202922 | 52 | 275 | 1.7 | 2.6 | 0.01 | 0.31 | 0.31 | 92 | 1046.4 |
| 20260505202907 | 52 | 276 | 1.7 | 2.6 | 0.01 | 0.31 | 0.31 | 92 | 1046.3 |
| 20260505202646 | 52 | 275 | 1.7 | 2.6 | 0.01 | 0.31 | 0.31 | 92 | 1046.2 |
| 20260505202354 | 52 | 275 | 1.7 | 2.6 | 0.01 | 0.31 | 0.31 | 92 | 1046.2 |
| 20260505202252 | 52 | 275 | 1.7 | 2.6 | 0.01 | 0.31 | 0.31 | 92 | 1046.2 |
| 20260505202158 | 52 | 276 | 1.7 | 2.6 | 0.01 | 0.31 | 0.31 | 92 | 1046.2 |
| 20260505202150 | 52 | 275 | 1.7 | 2.6 | 0.01 | 0.31 | 0.31 | 92 | 1046.1 |
| 20260505202143 | 52 | 275 | 1.7 | 2.6 | 0.01 | 0.31 | 0.31 | 92 | 1046.1 |
| 20260505201859 | 52 | 276 | 1.7 | 2.6 | 0.01 | 0.31 | 0.31 | 92 | 1046.1 |
| 20260505201851 | 52 | 276 | 0.9 | 2.6 | 0.01 | 0.31 | 0.31 | 92 | 1046.0 |
| 20260505201844 | 52 | 276 | 0.9 | 2.6 | 0.01 | 0.31 | 0.31 | 92 | 1046.0 |
| 20260505201819 | 52 | 276 | 0.9 | 2.6 | 0.01 | 0.31 | 0.31 | 92 | 1046.0 |
| 20260505201811 | 52 | 276 | 0.9 | 2.6 | 0.01 | 0.31 | 0.31 | 92 | 1046.0 |
| 20260505201545 | 52 | 276 | 0.9 | 2.6 | 0.01 | 0.31 | 0.31 | 92 | 1046.0 |
| 20260505201530 | 52 | 276 | 0.9 | 2.6 | 0.01 | 0.31 | 0.31 | 92 | 1046.0 |
| 20260505200948 | 52 | 276 | 0.0 | 1.7 | 0.01 | 0.31 | 0.31 | 92 | 1046.0 |
| 20260505200934 | 52 | 275 | 0.0 | 2.6 | 0.01 | 0.31 | 0.31 | 92 | 1045.9 |
| 20260505200925 | 52 | 275 | 0.0 | 2.6 | 0.01 | 0.31 | 0.31 | 92 | 1045.9 |
| 20260505200915 | 52 | 276 | 0.0 | 2.6 | 0.01 | 0.31 | 0.31 | 92 | 1046.0 |
| 20260505200549 | 52 | 275 | 0.9 | 2.6 | 0.01 | 0.31 | 0.31 | 92 | 1046.0 |
| 20260505200448 | 52 | 275 | 0.9 | 2.6 | 0.01 | 0.31 | 0.31 | 91 | 1045.9 |
| 20260505200412 | 52 | 275 | 0.9 | 2.6 | 0.01 | 0.31 | 0.31 | 92 | 1045.9 |
| 20260505200351 | 52 | 276 | 0.9 | 2.6 | 0.01 | 0.31 | 0.31 | 92 | 1045.9 |
| 20260505200246 | 52 | 276 | 0.9 | 2.6 | 0.01 | 0.31 | 0.31 | 92 | 1045.9 |
| 20260505200146 | 52 | 276 | 0.9 | 2.6 | 0.01 | 0.31 | 0.31 | 91 | 1045.9 |
| 20260505200108 | 52 | 275 | 0.9 | 2.6 | 0.01 | 0.31 | 0.31 | 91 | 1045.9 |
| 20260505200057 | 52 | 276 | 0.0 | 2.6 | 0.01 | 0.31 | 0.31 | 91 | 1045.9 |
| 20260505200046 | 52 | 276 | 0.0 | 1.7 | 0.01 | 0.31 | 0.31 | 91 | 1045.9 |
| 20260505200037 | 52 | 276 | 0.9 | 1.7 | 0.01 | 0.31 | 0.31 | 91 | 1045.9 |
| 20260505200023 | 52 | 275 | 0.9 | 1.7 | 0.01 | 0.31 | 0.31 | 91 | 1045.8 |
| 20260505195438 | 52 | 276 | 0.9 | 2.6 | 0.01 | 0.31 | 0.31 | 91 | 1045.8 |
| 20260505195412 | 52 | 275 | 0.9 | 2.6 | 0.01 | 0.31 | 0.31 | 91 | 1045.8 |
| 20260505195334 | 52 | 276 | 0.9 | 2.6 | 0.01 | 0.31 | 0.31 | 91 | 1045.8 |
| 20260505195234 | 52 | 275 | 0.9 | 2.6 | 0.01 | 0.31 | 0.31 | 91 | 1045.8 |
| 20260505195202 | 52 | 276 | 0.9 | 2.6 | 0.01 | 0.31 | 0.31 | 91 | 1045.7 |
| 20260505195153 | 52 | 275 | 0.9 | 2.6 | 0.01 | 0.31 | 0.30 | 91 | 1045.8 |
| 20260505194912 | 52 | 276 | 0.9 | 3.5 | 0.00 | 0.30 | 0.30 | 91 | 1045.7 |
| 20260505194832 | 52 | 275 | 1.7 | 3.5 | 0.00 | 0.30 | 0.30 | 91 | 1045.7 |
| 20260505194738 | 52 | 276 | 1.7 | 3.5 | 0.00 | 0.31 | 0.30 | 91 | 1045.7 |
| 20260505194724 | 52 | 275 | 1.7 | 3.5 | 0.00 | 0.31 | 0.30 | 91 | 1045.7 |
| 20260505194718 | 52 | 275 | 1.7 | 3.5 | 0.00 | 0.31 | 0.30 | 91 | 1045.6 |
| 20260505194658 | 52 | 276 | 1.7 | 3.5 | 0.00 | 0.31 | 0.30 | 91 | 1045.7 |
| 20260505194646 | 52 | 276 | 1.7 | 3.5 | 0.00 | 0.31 | 0.30 | 91 | 1045.6 |
| 20260505194638 | 53 | 275 | 2.6 | 3.5 | 0.00 | 0.31 | 0.30 | 91 | 1045.6 |
| 20260505194359 | 53 | 275 | 2.6 | 6.1 | 0.00 | 0.31 | 0.30 | 91 | 1045.6 |
| 20260505193832 | 53 | 276 | 2.6 | 6.1 | 0.00 | 0.32 | 0.30 | 91 | 1045.6 |
| 20260505193802 | 53 | 276 | 2.6 | 6.1 | 0.00 | 0.32 | 0.30 | 91 | 1045.6 |
| 20260505193754 | 53 | 276 | 2.6 | 6.1 | 0.00 | 0.33 | 0.30 | 91 | 1045.5 |
| 20260505193413 | 53 | 276 | 2.6 | 6.1 | 0.00 | 0.34 | 0.30 | 91 | 1045.5 |
| 20260505193326 | 53 | 276 | 2.6 | 6.1 | 0.00 | 0.34 | 0.30 | 91 | 1045.5 |
| 20260505193305 | 53 | 276 | 2.6 | 6.1 | 0.00 | 0.35 | 0.30 | 91 | 1045.4 |
| 20260505193258 | 53 | 275 | 1.7 | 6.1 | 0.00 | 0.35 | 0.30 | 91 | 1045.4 |
| 20260505192911 | 53 | 275 | 1.7 | 5.2 | 0.00 | 0.35 | 0.30 | 91 | 1045.2 |
| 20260505192826 | 53 | 274 | 1.7 | 3.5 | 0.00 | 0.35 | 0.30 | 91 | 1045.4 |
| 20260505192726 | 53 | 274 | 1.7 | 3.5 | 0.00 | 0.36 | 0.30 | 91 | 1045.2 |
| 20260505192626 | 53 | 275 | 1.7 | 3.5 | 0.00 | 0.36 | 0.30 | 91 | 1045.2 |
| 20260505192526 | 53 | 274 | 1.7 | 3.5 | 0.00 | 0.36 | 0.30 | 91 | 1045.2 |
| 20260505192426 | 53 | 274 | 1.7 | 3.5 | 0.00 | 0.37 | 0.30 | 91 | 1045.2 |
| 20260505192410 | 53 | 275 | 1.7 | 3.5 | 0.00 | 0.38 | 0.30 | 91 | 1045.2 |
| 20260505192328 | 53 | 275 | 1.7 | 3.5 | 0.00 | 0.38 | 0.30 | 91 | 1045.1 |
| 20260505192226 | 53 | 274 | 1.7 | 2.6 | 0.00 | 0.39 | 0.30 | 91 | 1045.1 |
| 20260505192126 | 53 | 275 | 1.7 | 3.5 | 0.00 | 0.39 | 0.30 | 91 | 1045.1 |
| 20260505192108 | 53 | 274 | 1.7 | 3.5 | 0.00 | 0.39 | 0.30 | 91 | 1045.0 |
| 20260505192101 | 53 | 275 | 1.7 | 3.5 | 0.00 | 0.40 | 0.30 | 91 | 1045.0 |
| 20260505192052 | 53 | 274 | 1.7 | 3.5 | 0.00 | 0.40 | 0.30 | 91 | 1045.0 |
| 20260505191726 | 53 | 278 | 1.7 | 3.5 | 0.00 | 0.41 | 0.30 | 91 | 1045.0 |
| 20260505191625 | 53 | 275 | 1.7 | 3.5 | 0.00 | 0.41 | 0.30 | 91 | 1044.9 |
| 20260505191606 | 53 | 275 | 1.7 | 3.5 | 0.00 | 0.42 | 0.30 | 91 | 1045.0 |
| 20260505191558 | 53 | 274 | 1.7 | 3.5 | 0.00 | 0.43 | 0.30 | 91 | 1044.9 |
| 20260505191548 | 53 | 275 | 1.7 | 3.5 | 0.00 | 0.43 | 0.30 | 91 | 1044.9 |
| 20260505191311 | 53 | 275 | 1.7 | 3.5 | 0.00 | 0.43 | 0.30 | 91 | 1044.9 |
| 20260505191304 | 53 | 274 | 1.7 | 3.5 | 0.00 | 0.43 | 0.30 | 91 | 1044.9 |
| 20260505191255 | 53 | 275 | 1.7 | 3.5 | 0.00 | 0.43 | 0.30 | 91 | 1044.8 |
| 20260505191012 | 53 | 275 | 1.7 | 3.5 | 0.00 | 0.44 | 0.30 | 91 | 1044.8 |
| 20260505190954 | 53 | 274 | 1.7 | 3.5 | 0.00 | 0.44 | 0.30 | 91 | 1044.8 |
| 20260505190654 | 53 | 275 | 1.7 | 3.5 | 0.00 | 0.44 | 0.30 | 91 | 1044.7 |
| 20260505190644 | 53 | 275 | 1.7 | 3.5 | 0.00 | 0.45 | 0.30 | 91 | 1044.8 |
| 20260505190630 | 53 | 275 | 1.7 | 3.5 | 0.00 | 0.45 | 0.30 | 91 | 1044.7 |
| 20260505190355 | 53 | 275 | 1.7 | 3.5 | 0.00 | 0.45 | 0.30 | 91 | 1044.7 |
| 20260505190347 | 53 | 275 | 1.7 | 3.5 | 0.00 | 0.45 | 0.30 | 91 | 1044.7 |
| 20260505190027 | 53 | 275 | 1.7 | 7.8 | 0.00 | 0.45 | 0.30 | 91 | 1044.6 |
| 20260505185924 | 53 | 274 | 1.7 | 7.8 | 0.00 | 0.45 | 0.30 | 90 | 1044.7 |
| 20260505185910 | 53 | 275 | 1.7 | 7.8 | 0.00 | 0.45 | 0.30 | 90 | 1044.7 |
| 20260505185822 | 53 | 275 | 1.7 | 7.8 | 0.00 | 0.45 | 0.30 | 90 | 1044.7 |
| 20260505185723 | 53 | 274 | 1.7 | 7.8 | 0.00 | 0.45 | 0.30 | 90 | 1044.7 |
| 20260505185622 | 53 | 275 | 1.7 | 7.8 | 0.00 | 0.45 | 0.30 | 90 | 1044.7 |
| 20260505185522 | 53 | 274 | 1.7 | 7.8 | 0.00 | 0.45 | 0.30 | 90 | 1044.6 |
| 20260505185423 | 53 | 275 | 1.7 | 7.8 | 0.00 | 0.45 | 0.30 | 90 | 1044.6 |
| 20260505185412 | 53 | 274 | 1.7 | 7.8 | 0.00 | 0.45 | 0.30 | 90 | 1044.6 |
| 20260505185322 | 53 | 275 | 2.6 | 7.8 | 0.00 | 0.45 | 0.30 | 90 | 1044.6 |
| 20260505185222 | 53 | 274 | 2.6 | 7.8 | 0.00 | 0.45 | 0.30 | 90 | 1044.5 |
| 20260505185121 | 54 | 274 | 2.6 | 9.6 | 0.00 | 0.45 | 0.30 | 90 | 1044.6 |
| 20260505185030 | 54 | 274 | 3.5 | 10.4 | 0.00 | 0.45 | 0.30 | 91 | 1044.6 |
| 20260505184910 | 54 | 274 | 3.5 | 10.4 | 0.00 | 0.45 | 0.30 | 91 | 1044.6 |
| 20260505184852 | 54 | 274 | 3.5 | 10.4 | 0.00 | 0.45 | 0.30 | 91 | 1044.6 |
| 20260505184845 | 54 | 274 | 4.3 | 10.4 | 0.00 | 0.45 | 0.30 | 91 | 1044.6 |
| 20260505184522 | 54 | 275 | 4.3 | 10.4 | 0.00 | 0.45 | 0.30 | 91 | 1044.6 |
| 20260505184410 | 54 | 274 | 3.5 | 10.4 | 0.00 | 0.45 | 0.30 | 91 | 1044.6 |
| 20260505184322 | 54 | 272 | 3.5 | 10.4 | 0.00 | 0.45 | 0.30 | 91 | 1044.5 |
| 20260505184222 | 54 | 326 | 3.5 | 10.4 | 0.00 | 0.45 | 0.30 | 91 | 1044.4 |
| 20260505184122 | 54 | 322 | 2.6 | 10.4 | 0.00 | 0.45 | 0.30 | 91 | 1044.5 |
| 20260505184101 | 54 | 303 | 2.6 | 8.7 | 0.00 | 0.45 | 0.30 | 91 | 1044.2 |
| 20260505184053 | 54 | 120 | 2.6 | 8.7 | 0.00 | 0.45 | 0.30 | 91 | 1044.1 |
| 20260505184043 | 54 | 119 | 2.6 | 8.7 | 0.00 | 0.45 | 0.30 | 91 | 1044.1 |
| 20260505183748 | 54 | 143 | 1.7 | 5.2 | 0.00 | 0.45 | 0.30 | 91 | 1044.6 |
| 20260505183737 | 54 | 269 | 1.7 | 3.5 | 0.00 | 0.45 | 0.30 | 91 | 1044.9 |
| 20260505183727 | 54 | 268 | 1.7 | 3.5 | 0.00 | 0.45 | 0.30 | 91 | 1044.9 |
| 20260505183456 | 54 | 270 | 1.7 | 3.5 | 0.00 | 0.45 | 0.30 | 91 | 1044.9 |
| 20260505183446 | 54 | 270 | 1.7 | 3.5 | 0.00 | 0.45 | 0.30 | 91 | 1044.9 |
| 20260505183122 | 54 | 270 | 1.7 | 3.5 | 0.00 | 0.45 | 0.30 | 91 | 1044.8 |
| 20260505183031 | 54 | 270 | 1.7 | 3.5 | 0.00 | 0.45 | 0.30 | 91 | 1044.8 |
| 20260505182910 | 54 | 270 | 1.7 | 3.5 | 0.00 | 0.45 | 0.30 | 91 | 1044.8 |
| 20260505182818 | 54 | 270 | 1.7 | 2.6 | 0.00 | 0.45 | 0.30 | 91 | 1044.8 |
| 20260505182718 | 54 | 270 | 1.7 | 2.6 | 0.00 | 0.45 | 0.30 | 91 | 1044.8 |
| 20260505182651 | 54 | 270 | 1.7 | 2.6 | 0.00 | 0.45 | 0.30 | 91 | 1044.9 |
| 20260505182641 | 54 | 272 | 1.7 | 2.6 | 0.00 | 0.45 | 0.30 | 91 | 1044.9 |
| 20260505182630 | 54 | 270 | 1.7 | 2.6 | 0.00 | 0.45 | 0.30 | 91 | 1044.9 |
| 20260505182318 | 54 | 270 | 1.7 | 2.6 | 0.00 | 0.45 | 0.30 | 91 | 1044.9 |
| 20260505182218 | 54 | 270 | 1.7 | 2.6 | 0.00 | 0.45 | 0.30 | 91 | 1045.0 |
| 20260505182146 | 54 | 270 | 1.7 | 2.6 | 0.00 | 0.45 | 0.30 | 91 | 1045.0 |
| 20260505182139 | 55 | 270 | 1.7 | 2.6 | 0.00 | 0.45 | 0.30 | 91 | 1045.0 |
| 20260505182121 | 55 | 270 | 1.7 | 2.6 | 0.00 | 0.45 | 0.30 | 91 | 1045.0 |
| 20260505181818 | 55 | 269 | 1.7 | 2.6 | 0.00 | 0.45 | 0.30 | 91 | 1045.0 |
| 20260505181718 | 55 | 299 | 1.7 | 2.6 | 0.00 | 0.45 | 0.30 | 91 | 1045.0 |
| 20260505181620 | 55 | 298 | 1.7 | 2.6 | 0.00 | 0.45 | 0.30 | 91 | 1045.1 |
| 20260505181518 | 55 | 298 | 1.7 | 2.6 | 0.02 | 0.45 | 0.30 | 91 | 1045.1 |
| 20260505181407 | 55 | 298 | 1.7 | 2.6 | 0.02 | 0.45 | 0.30 | 91 | 1045.2 |
| 20260505181318 | 55 | 298 | 1.7 | 2.6 | 0.02 | 0.45 | 0.30 | 91 | 1045.1 |